Time,TemperatureF,DewpointF,PressureIn,WindDirection,WindDirectionDegrees,WindSpeedMPH,WindSpeedGustMPH,Humidity,HourlyPrecipIn,Conditions,Clouds,dailyrainin,SolarRadiationWatts/m^2,SoftwareType,DateUTC
2013-03-13 00:04:00,21.5,18.5,30.27,NW,306,9.0,12.0,88,0.00,,,0.00,0,Wunderground v.1.15,2013-03-13 05:04:00,
2013-03-13 00:05:00,21.5,18.5,30.27,NW,306,9.0,12.0,88,0.00,,,0.00,0,Wunderground v.1.15,2013-03-13 05:05:00,
2013-03-13 00:07:00,21.4,18.4,30.27,NW,305,11.0,12.0,88,0.00,,,0.00,0,Wunderground v.1.15,2013-03-13 05:07:00,
2013-03-13 00:08:00,21.4,18.4,30.27,NW,304,10.0,12.0,88,0.00,,,0.00,0,Wunderground v.1.15,2013-03-13 05:08:00,
2013-03-13 00:10:00,21.3,18.3,30.27,WNW,298,12.0,12.0,88,0.00,,,0.00,0,Wunderground v.1.15,2013-03-13 05:10:00,
2013-03-13 00:13:00,21.3,18.3,30.27,NW,306,10.0,12.0,88,0.00,,,0.00,0,Wunderground v.1.15,2013-03-13 05:13:00,
2013-03-13 00:15:00,21.3,18.3,30.27,NW,308,11.0,12.0,88,0.00,,,0.00,0,Wunderground v.1.15,2013-03-13 05:15:00,
2013-03-13 00:17:00,21.2,18.2,30.27,NW,306,11.0,12.0,88,0.00,,,0.00,0,Wunderground v.1.15,2013-03-13 05:17:00,
2013-03-13 00:19:00,21.2,18.2,30.27,WNW,300,13.0,13.0,88,0.00,,,0.00,0,Wunderground v.1.15,2013-03-13 05:19:00,
2013-03-13 00:20:00,21.2,18.2,30.27,WNW,302,12.0,12.0,88,0.00,,,0.00,0,Wunderground v.1.15,2013-03-13 05:20:00,
2013-03-13 00:24:00,21.2,18.2,30.27,WNW,300,11.0,12.0,88,0.00,,,0.00,0,Wunderground v.1.15,2013-03-13 05:24:00,
2013-03-13 00:28:00,21.2,18.2,30.27,WNW,296,14.0,14.0,88,0.00,,,0.00,0,Wunderground v.1.15,2013-03-13 05:28:00,
2013-03-13 00:30:00,21.2,18.2,30.27,WNW,299,13.0,13.0,88,0.00,,,0.00,0,Wunderground v.1.15,2013-03-13 05:30:00,
2013-03-13 00:31:00,21.2,18.2,30.27,WNW,303,9.0,13.0,88,0.00,,,0.00,0,Wunderground v.1.15,2013-03-13 05:31:00,
2013-03-13 00:36:00,21.2,18.2,30.27,WNW,298,11.0,13.0,88,0.00,,,0.00,0,Wunderground v.1.15,2013-03-13 05:36:00,
2013-03-13 00:38:00,21.1,18.1,30.28,WNW,298,9.0,13.0,88,0.00,,,0.00,0,Wunderground v.1.15,2013-03-13 05:38:00,
2013-03-13 00:40:00,21.0,17.7,30.28,WNW,297,12.0,12.0,87,0.00,,,0.00,0,Wunderground v.1.15,2013-03-13 05:40:00,
2013-03-13 00:41:00,21.0,18.0,30.28,WNW,302,10.0,12.0,88,0.00,,,0.00,0,Wunderground v.1.15,2013-03-13 05:41:00,
2013-03-13 00:45:00,20.9,17.9,30.28,WNW,302,10.0,12.0,88,0.00,,,0.00,0,Wunderground v.1.15,2013-03-13 05:45:00,
2013-03-13 00:47:00,20.8,17.8,30.28,NW,309,9.0,12.0,88,0.00,,,0.00,0,Wunderground v.1.15,2013-03-13 05:47:00,
2013-03-13 00:48:00,20.8,17.8,30.28,NW,306,10.0,12.0,88,0.00,,,0.00,0,Wunderground v.1.15,2013-03-13 05:48:00,
2013-03-13 00:50:00,20.7,17.7,30.28,NW,308,9.0,10.0,88,0.00,,,0.00,0,Wunderground v.1.15,2013-03-13 05:50:00,
2013-03-13 00:51:00,20.7,17.7,30.28,NW,305,11.0,11.0,88,0.00,,,0.00,0,Wunderground v.1.15,2013-03-13 05:51:00,
2013-03-13 00:53:00,20.7,17.7,30.28,WNW,301,9.0,11.0,88,0.00,,,0.00,0,Wunderground v.1.15,2013-03-13 05:53:00,
2013-03-13 00:56:00,20.6,17.6,30.28,WNW,302,11.0,11.0,88,0.00,,,0.00,0,Wunderground v.1.15,2013-03-13 05:56:00,
2013-03-13 00:57:00,20.6,17.6,30.28,WNW,301,11.0,11.0,88,0.00,,,0.00,0,Wunderground v.1.15,2013-03-13 05:57:00,
2013-03-13 01:00:00,20.6,17.6,30.28,NW,309,10.0,10.0,88,0.00,,,0.00,0,Wunderground v.1.15,2013-03-13 06:00:00,
2013-03-13 01:01:00,20.5,17.5,30.28,NW,310,9.0,10.0,88,0.00,,,0.00,0,Wunderground v.1.15,2013-03-13 06:01:00,
2013-03-13 01:02:00,20.5,17.5,30.28,NW,311,10.0,10.0,88,0.00,,,0.00,0,Wunderground v.1.15,2013-03-13 06:02:00,
2013-03-13 01:06:00,20.5,17.5,30.28,WNW,302,9.0,10.0,88,0.00,,,0.00,0,Wunderground v.1.15,2013-03-13 06:06:00,
2013-03-13 01:07:00,20.5,17.5,30.28,WNW,300,10.0,10.0,88,0.00,,,0.00,0,Wunderground v.1.15,2013-03-13 06:07:00,
2013-03-13 01:08:00,20.4,17.4,30.28,NW,306,9.0,10.0,88,0.00,,,0.00,0,Wunderground v.1.15,2013-03-13 06:08:00,
2013-03-13 01:10:00,20.4,17.4,30.28,NW,305,9.0,10.0,88,0.00,,,0.00,0,Wunderground v.1.15,2013-03-13 06:10:00,
2013-03-13 01:12:00,20.4,17.4,30.28,NW,304,9.0,10.0,88,0.00,,,0.00,0,Wunderground v.1.15,2013-03-13 06:12:00,
2013-03-13 01:14:00,20.4,17.4,30.28,NW,307,9.0,10.0,88,0.00,,,0.00,0,Wunderground v.1.15,2013-03-13 06:14:00,
2013-03-13 01:18:00,20.3,17.3,30.28,NW,305,9.0,10.0,88,0.00,,,0.00,0,Wunderground v.1.15,2013-03-13 06:18:00,
2013-03-13 01:19:00,20.3,17.3,30.28,NW,308,8.0,10.0,88,0.00,,,0.00,0,Wunderground v.1.15,2013-03-13 06:19:00,
2013-03-13 01:23:00,20.2,17.2,30.28,NW,309,9.0,10.0,88,0.00,,,0.00,0,Wunderground v.1.15,2013-03-13 06:23:00,
2013-03-13 01:25:00,20.1,17.1,30.28,NW,307,8.0,10.0,88,0.00,,,0.00,0,Wunderground v.1.15,2013-03-13 06:25:00,
2013-03-13 01:26:00,20.1,17.1,30.28,NW,306,9.0,10.0,88,0.00,,,0.00,0,Wunderground v.1.15,2013-03-13 06:26:00,
2013-03-13 01:29:00,20.0,17.0,30.28,NW,309,10.0,10.0,88,0.00,,,0.00,0,Wunderground v.1.15,2013-03-13 06:29:00,
2013-03-13 01:31:00,20.0,17.0,30.29,NW,304,9.0,9.0,88,0.00,,,0.00,0,Wunderground v.1.15,2013-03-13 06:31:00,
2013-03-13 01:34:00,20.0,17.0,30.29,NW,308,8.0,11.0,88,0.00,,,0.00,0,Wunderground v.1.15,2013-03-13 06:34:00,
2013-03-13 01:35:00,20.0,17.0,30.29,WNW,301,9.0,11.0,88,0.00,,,0.00,0,Wunderground v.1.15,2013-03-13 06:35:00,
2013-03-13 01:37:00,20.0,17.0,30.29,WNW,302,9.0,11.0,88,0.00,,,0.00,0,Wunderground v.1.15,2013-03-13 06:37:00,
2013-03-13 01:39:00,20.0,17.0,30.29,NW,305,8.0,11.0,88,0.00,,,0.00,0,Wunderground v.1.15,2013-03-13 06:39:00,
2013-03-13 01:44:00,19.9,16.9,30.29,NW,310,10.0,10.0,88,0.00,,,0.00,0,Wunderground v.1.15,2013-03-13 06:44:00,
2013-03-13 01:47:00,20.0,17.0,30.29,NW,307,8.0,10.0,88,0.00,,,0.00,0,Wunderground v.1.15,2013-03-13 06:47:00,
2013-03-13 01:49:00,20.0,17.0,30.29,NW,306,9.0,10.0,88,0.00,,,0.00,0,Wunderground v.1.15,2013-03-13 06:49:00,
2013-03-13 01:50:00,20.0,17.0,30.29,WNW,298,10.0,10.0,88,0.00,,,0.00,0,Wunderground v.1.15,2013-03-13 06:50:00,
2013-03-13 01:52:00,20.1,17.1,30.29,WNW,303,10.0,11.0,88,0.00,,,0.00,0,Wunderground v.1.15,2013-03-13 06:52:00,
2013-03-13 01:54:00,20.1,17.1,30.29,WNW,298,11.0,11.0,88,0.00,,,0.00,0,Wunderground v.1.15,2013-03-13 06:54:00,
2013-03-13 01:56:00,20.1,17.1,30.29,WNW,301,9.0,11.0,88,0.00,,,0.00,0,Wunderground v.1.15,2013-03-13 06:56:00,
2013-03-13 01:59:00,20.0,17.0,30.30,WNW,297,9.0,11.0,88,0.00,,,0.00,0,Wunderground v.1.15,2013-03-13 06:59:00,
2013-03-13 02:00:00,20.0,17.0,30.30,WNW,297,8.0,9.0,88,0.00,,,0.00,0,Wunderground v.1.15,2013-03-13 07:00:00,
2013-03-13 02:02:00,20.0,16.8,30.30,NW,306,7.0,9.0,87,0.00,,,0.00,0,Wunderground v.1.15,2013-03-13 07:02:00,
2013-03-13 02:04:00,19.9,16.7,30.30,WNW,303,6.0,9.0,87,0.00,,,0.00,0,Wunderground v.1.15,2013-03-13 07:04:00,
2013-03-13 02:05:00,19.9,16.7,30.30,NW,304,7.0,9.0,87,0.00,,,0.00,0,Wunderground v.1.15,2013-03-13 07:05:00,
2013-03-13 02:07:00,19.8,16.6,30.30,WNW,298,7.0,9.0,87,0.00,,,0.00,0,Wunderground v.1.15,2013-03-13 07:07:00,
2013-03-13 02:12:00,19.5,16.3,30.30,WNW,302,8.0,8.0,87,0.00,,,0.00,0,Wunderground v.1.15,2013-03-13 07:12:00,
2013-03-13 02:14:00,19.4,16.2,30.30,WNW,299,7.0,9.0,87,0.00,,,0.00,0,Wunderground v.1.15,2013-03-13 07:14:00,
2013-03-13 02:17:00,19.3,16.1,30.30,NW,309,7.0,9.0,87,0.00,,,0.00,0,Wunderground v.1.15,2013-03-13 07:17:00,
2013-03-13 02:18:00,19.3,16.1,30.30,NW,306,7.0,9.0,87,0.00,,,0.00,0,Wunderground v.1.15,2013-03-13 07:18:00,
2013-03-13 02:21:00,19.2,16.2,30.30,NW,304,7.0,7.0,88,0.00,,,0.00,0,Wunderground v.1.15,2013-03-13 07:21:00,
2013-03-13 02:23:00,19.1,16.1,30.30,WNW,301,7.0,8.0,88,0.00,,,0.00,0,Wunderground v.1.15,2013-03-13 07:23:00,
2013-03-13 02:26:00,19.0,16.0,30.31,WNW,302,6.0,8.0,88,0.00,,,0.00,0,Wunderground v.1.15,2013-03-13 07:26:00,
2013-03-13 02:27:00,19.0,16.0,30.31,NW,304,7.0,8.0,88,0.00,,,0.00,0,Wunderground v.1.15,2013-03-13 07:27:00,
2013-03-13 02:28:00,18.9,15.9,30.31,NW,304,7.0,8.0,88,0.00,,,0.00,0,Wunderground v.1.15,2013-03-13 07:28:00,
2013-03-13 02:32:00,18.7,15.5,30.31,WNW,298,5.0,7.0,87,0.00,,,0.00,0,Wunderground v.1.15,2013-03-13 07:32:00,
2013-03-13 02:33:00,18.6,15.4,30.31,WNW,294,6.0,7.0,87,0.00,,,0.00,0,Wunderground v.1.15,2013-03-13 07:33:00,
2013-03-13 02:37:00,18.4,15.2,30.31,WNW,292,6.0,7.0,87,0.00,,,0.00,0,Wunderground v.1.15,2013-03-13 07:37:00,
2013-03-13 02:39:00,18.2,15.0,30.31,WNW,290,7.0,7.0,87,0.00,,,0.00,0,Wunderground v.1.15,2013-03-13 07:39:00,
2013-03-13 02:40:00,18.2,15.0,30.31,WNW,292,8.0,8.0,87,0.00,,,0.00,0,Wunderground v.1.15,2013-03-13 07:40:00,
2013-03-13 02:42:00,18.0,14.8,30.31,WNW,296,8.0,8.0,87,0.00,,,0.00,0,Wunderground v.1.15,2013-03-13 07:42:00,
2013-03-13 02:43:00,18.0,15.0,30.31,WNW,296,8.0,8.0,88,0.00,,,0.00,0,Wunderground v.1.15,2013-03-13 07:43:00,
2013-03-13 02:44:00,17.9,14.9,30.31,WNW,294,8.0,9.0,88,0.00,,,0.00,0,Wunderground v.1.15,2013-03-13 07:44:00,
2013-03-13 02:45:00,17.9,14.9,30.31,WNW,298,9.0,9.0,88,0.00,,,0.00,0,Wunderground v.1.15,2013-03-13 07:45:00,
2013-03-13 02:47:00,17.9,14.9,30.31,WNW,303,9.0,9.0,88,0.00,,,0.00,0,Wunderground v.1.15,2013-03-13 07:47:00,
2013-03-13 02:49:00,18.0,15.0,30.31,WNW,295,8.0,9.0,88,0.00,,,0.00,0,Wunderground v.1.15,2013-03-13 07:49:00,
2013-03-13 02:51:00,18.1,15.1,30.31,WNW,295,9.0,10.0,88,0.00,,,0.00,0,Wunderground v.1.15,2013-03-13 07:51:00,
2013-03-13 02:52:00,18.2,15.2,30.31,WNW,297,8.0,10.0,88,0.00,,,0.00,0,Wunderground v.1.15,2013-03-13 07:52:00,
2013-03-13 02:53:00,18.2,15.2,30.31,WNW,299,9.0,10.0,88,0.00,,,0.00,0,Wunderground v.1.15,2013-03-13 07:53:00,
2013-03-13 02:56:00,18.2,15.2,30.31,WNW,302,8.0,10.0,88,0.00,,,0.00,0,Wunderground v.1.15,2013-03-13 07:56:00,
2013-03-13 02:57:00,18.3,15.3,30.32,NW,306,8.0,10.0,88,0.00,,,0.00,0,Wunderground v.1.15,2013-03-13 07:57:00,
2013-03-13 02:58:00,18.3,15.3,30.31,NW,305,7.0,10.0,88,0.00,,,0.00,0,Wunderground v.1.15,2013-03-13 07:58:00,
2013-03-13 03:01:00,18.4,15.4,30.31,WNW,303,9.0,9.0,88,0.00,,,0.00,0,Wunderground v.1.15,2013-03-13 08:01:00,
2013-03-13 03:03:00,18.4,15.4,30.32,NW,304,9.0,9.0,88,0.00,,,0.00,0,Wunderground v.1.15,2013-03-13 08:03:00,
2013-03-13 03:08:00,18.5,15.5,30.32,WNW,297,8.0,10.0,88,0.00,,,0.00,0,Wunderground v.1.15,2013-03-13 08:08:00,
2013-03-13 03:09:00,18.5,15.3,30.32,WNW,298,9.0,10.0,87,0.00,,,0.00,0,Wunderground v.1.15,2013-03-13 08:09:00,
2013-03-13 03:11:00,18.6,15.4,30.32,NW,306,8.0,9.0,87,0.00,,,0.00,0,Wunderground v.1.15,2013-03-13 08:11:00,
2013-03-13 03:14:00,18.6,15.4,30.32,NW,308,7.0,10.0,87,0.00,,,0.00,0,Wunderground v.1.15,2013-03-13 08:14:00,
2013-03-13 03:15:00,18.6,15.4,30.32,WNW,302,8.0,10.0,87,0.00,,,0.00,0,Wunderground v.1.15,2013-03-13 08:15:00,
2013-03-13 03:17:00,18.6,15.4,30.31,WNW,298,9.0,10.0,87,0.00,,,0.00,0,Wunderground v.1.15,2013-03-13 08:17:00,
2013-03-13 03:19:00,18.5,15.3,30.32,WNW,297,7.0,10.0,87,0.00,,,0.00,0,Wunderground v.1.15,2013-03-13 08:19:00,
2013-03-13 03:22:00,18.5,15.3,30.32,WNW,293,8.0,9.0,87,0.00,,,0.00,0,Wunderground v.1.15,2013-03-13 08:22:00,
2013-03-13 03:24:00,18.3,15.1,30.32,WNW,294,7.0,9.0,87,0.00,,,0.00,0,Wunderground v.1.15,2013-03-13 08:24:00,
2013-03-13 03:25:00,18.3,15.1,30.32,WNW,292,8.0,9.0,87,0.00,,,0.00,0,Wunderground v.1.15,2013-03-13 08:25:00,
2013-03-13 03:29:00,18.0,14.8,30.32,WNW,297,9.0,10.0,87,0.00,,,0.00,0,Wunderground v.1.15,2013-03-13 08:29:00,
2013-03-13 03:30:00,18.0,14.8,30.32,WNW,301,9.0,9.0,87,0.00,,,0.00,0,Wunderground v.1.15,2013-03-13 08:30:00,
2013-03-13 03:33:00,17.8,14.6,30.32,WNW,300,9.0,10.0,87,0.00,,,0.00,0,Wunderground v.1.15,2013-03-13 08:33:00,
2013-03-13 03:35:00,17.7,14.5,30.32,WNW,302,8.0,10.0,87,0.00,,,0.00,0,Wunderground v.1.15,2013-03-13 08:35:00,
2013-03-13 03:36:00,17.7,14.8,30.32,WNW,301,8.0,11.0,88,0.00,,,0.00,0,Wunderground v.1.15,2013-03-13 08:36:00,
2013-03-13 03:39:00,17.6,14.7,30.32,WNW,301,9.0,11.0,88,0.00,,,0.00,0,Wunderground v.1.15,2013-03-13 08:39:00,
2013-03-13 03:40:00,17.6,14.7,30.32,NW,305,8.0,11.0,88,0.00,,,0.00,0,Wunderground v.1.15,2013-03-13 08:40:00,
2013-03-13 03:41:00,17.6,14.7,30.32,WNW,299,8.0,9.0,88,0.00,,,0.00,0,Wunderground v.1.15,2013-03-13 08:41:00,
2013-03-13 03:45:00,17.5,14.6,30.32,WNW,302,8.0,10.0,88,0.00,,,0.00,0,Wunderground v.1.15,2013-03-13 08:45:00,
2013-03-13 03:46:00,17.5,14.6,30.32,WNW,303,8.0,10.0,88,0.00,,,0.00,0,Wunderground v.1.15,2013-03-13 08:46:00,
2013-03-13 03:47:00,17.5,14.6,30.32,NW,306,9.0,11.0,88,0.00,,,0.00,0,Wunderground v.1.15,2013-03-13 08:47:00,
2013-03-13 03:48:00,17.5,14.6,30.32,NW,309,7.0,11.0,88,0.00,,,0.00,0,Wunderground v.1.15,2013-03-13 08:48:00,
2013-03-13 03:51:00,17.5,14.6,30.32,NW,313,7.0,8.0,88,0.00,,,0.00,0,Wunderground v.1.15,2013-03-13 08:51:00,
2013-03-13 03:53:00,17.4,14.5,30.32,NW,309,9.0,9.0,88,0.00,,,0.00,0,Wunderground v.1.15,2013-03-13 08:53:00,
2013-03-13 03:54:00,17.5,14.6,30.32,NW,309,9.0,10.0,88,0.00,,,0.00,0,Wunderground v.1.15,2013-03-13 08:54:00,
2013-03-13 03:56:00,17.4,14.5,30.32,NW,311,8.0,10.0,88,0.00,,,0.00,0,Wunderground v.1.15,2013-03-13 08:56:00,
2013-03-13 03:59:00,17.5,14.6,30.32,WNW,303,9.0,10.0,88,0.00,,,0.00,0,Wunderground v.1.15,2013-03-13 08:59:00,
2013-03-13 04:02:00,17.5,14.6,30.32,WNW,302,8.0,10.0,88,0.00,,,0.00,0,Wunderground v.1.15,2013-03-13 09:02:00,
2013-03-13 04:04:00,17.5,14.6,30.32,NW,304,9.0,10.0,88,0.00,,,0.00,0,Wunderground v.1.15,2013-03-13 09:04:00,
2013-03-13 04:05:00,17.5,14.6,30.32,NW,305,7.0,10.0,88,0.00,,,0.00,0,Wunderground v.1.15,2013-03-13 09:05:00,
2013-03-13 04:07:00,17.4,14.5,30.32,NW,306,8.0,10.0,88,0.00,,,0.00,0,Wunderground v.1.15,2013-03-13 09:07:00,
2013-03-13 04:08:00,17.4,14.5,30.32,NW,306,7.0,10.0,88,0.00,,,0.00,0,Wunderground v.1.15,2013-03-13 09:08:00,
2013-03-13 04:10:00,17.3,14.4,30.32,NW,306,8.0,9.0,88,0.00,,,0.00,0,Wunderground v.1.15,2013-03-13 09:10:00,
2013-03-13 04:14:00,17.3,14.4,30.33,NW,311,7.0,10.0,88,0.00,,,0.00,0,Wunderground v.1.15,2013-03-13 09:14:00,
2013-03-13 04:15:00,17.3,14.4,30.33,NW,311,8.0,10.0,88,0.00,,,0.00,0,Wunderground v.1.15,2013-03-13 09:15:00,
2013-03-13 04:16:00,17.2,14.3,30.33,NW,313,8.0,10.0,88,0.00,,,0.00,0,Wunderground v.1.15,2013-03-13 09:16:00,
2013-03-13 04:19:00,17.2,14.3,30.32,NW,310,8.0,10.0,88,0.00,,,0.00,0,Wunderground v.1.15,2013-03-13 09:19:00,
2013-03-13 04:20:00,17.2,14.3,30.32,NW,313,8.0,9.0,88,0.00,,,0.00,0,Wunderground v.1.15,2013-03-13 09:20:00,
2013-03-13 04:21:00,17.2,14.3,30.33,NW,310,8.0,9.0,88,0.00,,,0.00,0,Wunderground v.1.15,2013-03-13 09:21:00,
2013-03-13 04:22:00,17.2,14.3,30.33,NW,313,7.0,9.0,88,0.00,,,0.00,0,Wunderground v.1.15,2013-03-13 09:22:00,
2013-03-13 04:24:00,17.2,14.3,30.33,NW,316,6.0,10.0,88,0.00,,,0.00,0,Wunderground v.1.15,2013-03-13 09:24:00,
2013-03-13 04:25:00,17.2,14.3,30.33,NW,317,5.0,10.0,88,0.00,,,0.00,0,Wunderground v.1.15,2013-03-13 09:25:00,
2013-03-13 04:27:00,17.1,14.2,30.33,NW,315,6.0,10.0,88,0.00,,,0.00,0,Wunderground v.1.15,2013-03-13 09:27:00,
2013-03-13 04:30:00,17.0,14.1,30.33,NW,314,7.0,7.0,88,0.00,,,0.00,0,Wunderground v.1.15,2013-03-13 09:30:00,
2013-03-13 04:31:00,17.0,14.1,30.33,NW,319,8.0,8.0,88,0.00,,,0.00,0,Wunderground v.1.15,2013-03-13 09:31:00,
2013-03-13 04:32:00,16.9,14.0,30.33,NW,311,7.0,8.0,88,0.00,,,0.00,0,Wunderground v.1.15,2013-03-13 09:32:00,
2013-03-13 04:35:00,16.9,14.0,30.33,NW,304,9.0,9.0,88,0.00,,,0.00,0,Wunderground v.1.15,2013-03-13 09:35:00,
2013-03-13 04:36:00,16.8,13.9,30.33,NW,309,8.0,9.0,88,0.00,,,0.00,0,Wunderground v.1.15,2013-03-13 09:36:00,
2013-03-13 04:37:00,16.8,13.9,30.33,NW,307,6.0,9.0,88,0.00,,,0.00,0,Wunderground v.1.15,2013-03-13 09:37:00,
2013-03-13 04:39:00,16.7,13.8,30.33,NW,308,7.0,9.0,88,0.00,,,0.00,0,Wunderground v.1.15,2013-03-13 09:39:00,
2013-03-13 04:40:00,16.7,13.8,30.33,NW,306,7.0,7.0,88,0.00,,,0.00,0,Wunderground v.1.15,2013-03-13 09:40:00,
2013-03-13 04:42:00,16.6,13.7,30.33,NW,304,7.0,7.0,88,0.00,,,0.00,0,Wunderground v.1.15,2013-03-13 09:42:00,
2013-03-13 04:43:00,16.6,13.7,30.33,NW,305,6.0,8.0,88,0.00,,,0.00,0,Wunderground v.1.15,2013-03-13 09:43:00,
2013-03-13 04:44:00,16.5,13.6,30.33,WNW,301,7.0,8.0,88,0.00,,,0.00,0,Wunderground v.1.15,2013-03-13 09:44:00,
2013-03-13 04:45:00,16.4,13.5,30.33,WNW,300,6.0,8.0,88,0.00,,,0.00,0,Wunderground v.1.15,2013-03-13 09:45:00,
2013-03-13 04:48:00,16.3,13.4,30.34,WNW,296,6.0,8.0,88,0.00,,,0.00,0,Wunderground v.1.15,2013-03-13 09:48:00,
2013-03-13 04:50:00,16.2,13.3,30.34,WNW,302,6.0,7.0,88,0.00,,,0.00,0,Wunderground v.1.15,2013-03-13 09:50:00,
2013-03-13 04:52:00,16.2,13.3,30.34,WNW,301,7.0,8.0,88,0.00,,,0.00,0,Wunderground v.1.15,2013-03-13 09:52:00,
2013-03-13 04:53:00,16.1,13.2,30.34,NW,304,6.0,8.0,88,0.00,,,0.00,0,Wunderground v.1.15,2013-03-13 09:53:00,
2013-03-13 04:54:00,16.1,13.2,30.34,WNW,302,6.0,8.0,88,0.00,,,0.00,0,Wunderground v.1.15,2013-03-13 09:54:00,
2013-03-13 04:57:00,15.9,13.0,30.34,NW,304,6.0,8.0,88,0.00,,,0.00,0,Wunderground v.1.15,2013-03-13 09:57:00,
2013-03-13 04:59:00,15.9,13.0,30.34,NW,304,6.0,8.0,88,0.00,,,0.00,0,Wunderground v.1.15,2013-03-13 09:59:00,
2013-03-13 05:00:00,15.9,13.0,30.34,NW,304,7.0,8.0,88,0.00,,,0.00,0,Wunderground v.1.15,2013-03-13 10:00:00,
2013-03-13 05:03:00,15.7,12.8,30.34,WNW,300,8.0,8.0,88,0.00,,,0.00,0,Wunderground v.1.15,2013-03-13 10:03:00,
2013-03-13 05:04:00,15.7,12.8,30.34,WNW,301,7.0,8.0,88,0.00,,,0.00,0,Wunderground v.1.15,2013-03-13 10:04:00,
2013-03-13 05:05:00,15.7,12.8,30.34,WNW,300,6.0,8.0,88,0.00,,,0.00,0,Wunderground v.1.15,2013-03-13 10:05:00,
2013-03-13 05:08:00,15.6,12.9,30.34,WNW,300,6.0,8.0,89,0.00,,,0.00,0,Wunderground v.1.15,2013-03-13 10:08:00,
2013-03-13 05:09:00,15.7,13.0,30.34,WNW,300,6.0,8.0,89,0.00,,,0.00,0,Wunderground v.1.15,2013-03-13 10:09:00,
2013-03-13 05:10:00,15.6,12.9,30.34,NW,306,5.0,7.0,89,0.00,,,0.00,0,Wunderground v.1.15,2013-03-13 10:10:00,
2013-03-13 05:14:00,15.4,12.5,30.34,NW,311,4.0,7.0,88,0.00,,,0.00,0,Wunderground v.1.15,2013-03-13 10:14:00,
2013-03-13 05:15:00,15.4,12.5,30.34,NW,310,5.0,7.0,88,0.00,,,0.00,0,Wunderground v.1.15,2013-03-13 10:15:00,
2013-03-13 05:19:00,15.2,12.3,30.35,NW,309,6.0,7.0,88,0.00,,,0.00,0,Wunderground v.1.15,2013-03-13 10:19:00,
2013-03-13 05:20:00,15.2,12.3,30.35,NW,313,4.0,5.0,88,0.00,,,0.00,0,Wunderground v.1.15,2013-03-13 10:20:00,
2013-03-13 05:22:00,15.1,12.4,30.35,NW,316,5.0,5.0,89,0.00,,,0.00,0,Wunderground v.1.15,2013-03-13 10:22:00,
2013-03-13 05:24:00,15.0,12.3,30.35,NW,312,6.0,6.0,89,0.00,,,0.00,0,Wunderground v.1.15,2013-03-13 10:24:00,
2013-03-13 05:26:00,15.0,12.3,30.35,NW,312,5.0,6.0,89,0.00,,,0.00,0,Wunderground v.1.15,2013-03-13 10:26:00,
2013-03-13 05:29:00,14.9,12.2,30.35,NW,310,5.0,6.0,89,0.00,,,0.00,0,Wunderground v.1.15,2013-03-13 10:29:00,
2013-03-13 05:30:00,14.9,12.2,30.35,NW,309,6.0,6.0,89,0.00,,,0.00,0,Wunderground v.1.15,2013-03-13 10:30:00,
2013-03-13 05:31:00,14.9,12.2,30.35,NW,313,6.0,6.0,89,0.00,,,0.00,0,Wunderground v.1.15,2013-03-13 10:31:00,
2013-03-13 05:32:00,15.0,12.3,30.35,NW,312,6.0,6.0,89,0.00,,,0.00,0,Wunderground v.1.15,2013-03-13 10:32:00,
2013-03-13 05:36:00,14.9,12.2,30.35,NW,305,5.0,7.0,89,0.00,,,0.00,0,Wunderground v.1.15,2013-03-13 10:36:00,
2013-03-13 05:38:00,14.9,12.2,30.35,WNW,301,6.0,7.0,89,0.00,,,0.00,0,Wunderground v.1.15,2013-03-13 10:38:00,
2013-03-13 05:41:00,14.9,12.2,30.36,WNW,302,7.0,8.0,89,0.00,,,0.00,0,Wunderground v.1.15,2013-03-13 10:41:00,
2013-03-13 05:43:00,14.9,12.2,30.36,NW,310,8.0,8.0,89,0.00,,,0.00,0,Wunderground v.1.15,2013-03-13 10:43:00,
2013-03-13 05:44:00,14.9,12.2,30.36,NW,307,8.0,8.0,89,0.00,,,0.00,0,Wunderground v.1.15,2013-03-13 10:44:00,
2013-03-13 05:45:00,14.9,12.2,30.36,NW,308,7.0,8.0,89,0.00,,,0.00,0,Wunderground v.1.15,2013-03-13 10:45:00,
2013-03-13 05:49:00,15.0,12.6,30.36,NW,306,9.0,9.0,90,0.00,,,0.00,0,Wunderground v.1.15,2013-03-13 10:49:00,
2013-03-13 05:50:00,15.0,12.6,30.36,NW,309,8.0,8.0,90,0.00,,,0.00,0,Wunderground v.1.15,2013-03-13 10:50:00,
2013-03-13 05:51:00,15.1,12.7,30.36,NW,310,8.0,8.0,90,0.00,,,0.00,0,Wunderground v.1.15,2013-03-13 10:51:00,
2013-03-13 05:54:00,15.1,12.7,30.36,NW,304,8.0,9.0,90,0.00,,,0.00,0,Wunderground v.1.15,2013-03-13 10:54:00,
2013-03-13 05:55:00,15.1,12.7,30.36,WNW,302,7.0,9.0,90,0.00,,,0.00,0,Wunderground v.1.15,2013-03-13 10:55:00,
2013-03-13 05:57:00,15.1,12.7,30.36,NW,305,8.0,10.0,90,0.00,,,0.00,0,Wunderground v.1.15,2013-03-13 10:57:00,
2013-03-13 05:59:00,15.2,12.5,30.36,NW,304,6.0,10.0,89,0.00,,,0.00,0,Wunderground v.1.15,2013-03-13 10:59:00,
2013-03-13 06:00:00,15.1,12.4,30.36,NW,304,8.0,8.0,89,0.00,,,0.00,0,Wunderground v.1.15,2013-03-13 11:00:00,
2013-03-13 06:01:00,15.1,12.4,30.37,NW,306,7.0,8.0,89,0.00,,,0.00,0,Wunderground v.1.15,2013-03-13 11:01:00,
2013-03-13 06:03:00,15.2,12.5,30.37,NW,309,6.0,8.0,89,0.00,,,0.00,0,Wunderground v.1.15,2013-03-13 11:03:00,
2013-03-13 06:04:00,15.1,12.4,30.37,NW,312,7.0,8.0,89,0.00,,,0.00,0,Wunderground v.1.15,2013-03-13 11:04:00,
2013-03-13 06:07:00,15.2,12.5,30.36,NW,313,7.0,9.0,89,0.00,,,0.00,0,Wunderground v.1.15,2013-03-13 11:07:00,
2013-03-13 06:08:00,15.1,12.4,30.36,NW,309,8.0,9.0,89,0.00,,,0.00,0,Wunderground v.1.15,2013-03-13 11:08:00,
2013-03-13 06:09:00,15.1,12.4,30.37,NW,306,8.0,9.0,89,0.00,,,0.00,0,Wunderground v.1.15,2013-03-13 11:09:00,
2013-03-13 06:11:00,15.1,12.4,30.37,NW,311,7.0,8.0,89,0.00,,,0.00,0,Wunderground v.1.15,2013-03-13 11:11:00,
2013-03-13 06:13:00,15.1,12.4,30.37,NW,310,7.0,8.0,89,0.00,,,0.00,0,Wunderground v.1.15,2013-03-13 11:13:00,
2013-03-13 06:17:00,15.1,12.4,30.37,NW,317,7.0,8.0,89,0.00,,,0.00,0,Wunderground v.1.15,2013-03-13 11:17:00,
2013-03-13 06:19:00,15.1,12.4,30.37,NW,316,7.0,8.0,89,0.00,,,0.00,0,Wunderground v.1.15,2013-03-13 11:19:00,
2013-03-13 06:22:00,15.0,12.3,30.37,NW,311,7.0,7.0,89,0.00,,,0.00,0,Wunderground v.1.15,2013-03-13 11:22:00,
2013-03-13 06:23:00,15.0,12.3,30.37,NW,315,7.0,7.0,89,0.00,,,0.00,0,Wunderground v.1.15,2013-03-13 11:23:00,
2013-03-13 06:24:00,15.0,12.3,30.37,NW,319,5.0,7.0,89,0.00,,,0.00,0,Wunderground v.1.15,2013-03-13 11:24:00,
2013-03-13 06:25:00,15.0,12.3,30.37,NW,319,6.0,7.0,89,0.00,,,0.00,0,Wunderground v.1.15,2013-03-13 11:25:00,
2013-03-13 06:27:00,14.9,12.2,30.37,NW,320,6.0,8.0,89,0.00,,,0.00,0,Wunderground v.1.15,2013-03-13 11:27:00,
2013-03-13 06:28:00,14.8,12.1,30.37,NW,313,6.0,8.0,89,0.00,,,0.00,0,Wunderground v.1.15,2013-03-13 11:28:00,
2013-03-13 06:30:00,14.7,12.0,30.37,NW,313,6.0,6.0,89,0.00,,,0.00,0,Wunderground v.1.15,2013-03-13 11:30:00,
2013-03-13 06:33:00,14.7,12.0,30.37,NW,319,4.0,6.0,89,0.00,,,0.00,0,Wunderground v.1.15,2013-03-13 11:33:00,
2013-03-13 06:35:00,14.6,11.9,30.36,NW,319,3.0,6.0,89,0.00,,,0.00,0,Wunderground v.1.15,2013-03-13 11:35:00,
2013-03-13 06:39:00,14.4,11.8,30.37,NW,318,6.0,6.0,89,0.00,,,0.00,0,Wunderground v.1.15,2013-03-13 11:39:00,
2013-03-13 06:40:00,14.3,11.7,30.37,NW,316,5.0,5.0,89,0.00,,,0.00,0,Wunderground v.1.15,2013-03-13 11:40:00,
2013-03-13 06:41:00,14.3,11.7,30.37,NW,315,6.0,6.0,89,0.00,,,0.00,0,Wunderground v.1.15,2013-03-13 11:41:00,
2013-03-13 06:44:00,14.3,11.7,30.37,NW,315,5.0,6.0,89,0.00,,,0.00,0,Wunderground v.1.15,2013-03-13 11:44:00,
2013-03-13 06:46:00,14.2,11.6,30.37,NW,315,5.0,6.0,89,0.00,,,0.00,0,Wunderground v.1.15,2013-03-13 11:46:00,
2013-03-13 06:47:00,14.1,11.5,30.37,NW,315,4.0,6.0,89,0.00,,,0.00,0,Wunderground v.1.15,2013-03-13 11:47:00,
2013-03-13 06:50:00,14.0,11.4,30.37,NW,309,4.0,5.0,89,0.00,,,0.00,0,Wunderground v.1.15,2013-03-13 11:50:00,
2013-03-13 06:54:00,13.8,11.2,30.37,NW,317,6.0,6.0,89,0.00,,,0.00,0,Wunderground v.1.15,2013-03-13 11:54:00,
2013-03-13 06:56:00,13.7,11.1,30.37,NW,317,6.0,7.0,89,0.00,,,0.00,0,Wunderground v.1.15,2013-03-13 11:56:00,
2013-03-13 06:59:00,13.7,11.1,30.37,NW,308,5.0,7.0,89,0.00,,,0.00,0,Wunderground v.1.15,2013-03-13 11:59:00,
2013-03-13 07:02:00,13.7,11.1,30.37,NW,312,3.0,5.0,89,0.00,,,0.00,0,Wunderground v.1.15,2013-03-13 12:02:00,
2013-03-13 07:04:00,13.6,11.0,30.37,NW,313,4.0,5.0,89,0.00,,,0.00,0,Wunderground v.1.15,2013-03-13 12:04:00,
2013-03-13 07:05:00,13.5,10.9,30.37,NW,313,4.0,5.0,89,0.00,,,0.00,0,Wunderground v.1.15,2013-03-13 12:05:00,
2013-03-13 07:08:00,13.4,10.8,30.37,NW,306,5.0,5.0,89,0.00,,,0.00,0,Wunderground v.1.15,2013-03-13 12:08:00,
2013-03-13 07:09:00,13.4,10.8,30.37,WNW,303,4.0,5.0,89,0.00,,,0.00,0,Wunderground v.1.15,2013-03-13 12:09:00,
2013-03-13 07:11:00,13.4,10.8,30.37,NW,305,5.0,5.0,89,0.00,,,0.00,0,Wunderground v.1.15,2013-03-13 12:11:00,
2013-03-13 07:13:00,13.5,11.1,30.37,NW,305,5.0,5.0,90,0.00,,,0.00,0,Wunderground v.1.15,2013-03-13 12:13:00,
2013-03-13 07:15:00,13.5,11.1,30.38,NW,308,4.0,5.0,90,0.00,,,0.00,0,Wunderground v.1.15,2013-03-13 12:15:00,
2013-03-13 07:17:00,13.5,11.1,30.37,NW,308,4.0,6.0,90,0.00,,,0.00,0,Wunderground v.1.15,2013-03-13 12:17:00,
2013-03-13 07:19:00,13.5,11.1,30.38,WNW,303,5.0,6.0,90,0.00,,,0.00,0,Wunderground v.1.15,2013-03-13 12:19:00,
2013-03-13 07:20:00,13.5,11.1,30.38,WNW,300,5.0,6.0,90,0.00,,,0.00,0,Wunderground v.1.15,2013-03-13 12:20:00,
2013-03-13 07:21:00,13.5,11.1,30.38,WNW,299,5.0,6.0,90,0.00,,,0.00,0,Wunderground v.1.15,2013-03-13 12:21:00,
2013-03-13 07:23:00,13.5,11.1,30.38,WNW,303,5.0,6.0,90,0.00,,,0.00,0,Wunderground v.1.15,2013-03-13 12:23:00,
2013-03-13 07:26:00,13.5,11.1,30.37,NW,313,4.0,6.0,90,0.00,,,0.00,0,Wunderground v.1.15,2013-03-13 12:26:00,
2013-03-13 07:28:00,13.4,11.0,30.38,NW,315,3.0,6.0,90,0.00,,,0.00,5,Wunderground v.1.15,2013-03-13 12:28:00,
2013-03-13 07:29:00,13.2,10.6,30.38,NW,315,2.0,6.0,89,0.00,,,0.00,5,Wunderground v.1.15,2013-03-13 12:29:00,
2013-03-13 07:30:00,13.1,10.5,30.37,NW,315,1.0,6.0,89,0.00,,,0.00,7,Wunderground v.1.15,2013-03-13 12:30:00,
2013-03-13 07:31:00,13.0,10.4,30.37,NW,315,2.0,4.0,89,0.00,,,0.00,7,Wunderground v.1.15,2013-03-13 12:31:00,
2013-03-13 07:33:00,12.9,10.3,30.38,NW,315,3.0,4.0,89,0.00,,,0.00,9,Wunderground v.1.15,2013-03-13 12:33:00,
2013-03-13 07:35:00,12.7,10.1,30.38,NW,315,3.0,4.0,89,0.00,,,0.00,11,Wunderground v.1.15,2013-03-13 12:35:00,
2013-03-13 07:36:00,12.7,10.1,30.38,NW,315,1.0,4.0,89,0.00,,,0.00,11,Wunderground v.1.15,2013-03-13 12:36:00,
2013-03-13 07:38:00,12.6,10.0,30.38,NW,315,0.0,4.0,89,0.00,,,0.00,12,Wunderground v.1.15,2013-03-13 12:38:00,
2013-03-13 07:39:00,12.6,10.2,30.38,NW,315,1.0,4.0,90,0.00,,,0.00,14,Wunderground v.1.15,2013-03-13 12:39:00,
2013-03-13 07:40:00,12.6,10.2,30.38,NW,315,2.0,4.0,90,0.00,,,0.00,14,Wunderground v.1.15,2013-03-13 12:40:00,
2013-03-13 07:41:00,12.5,10.1,30.38,NW,315,1.0,3.0,90,0.00,,,0.00,14,Wunderground v.1.15,2013-03-13 12:41:00,
2013-03-13 07:44:00,12.3,9.9,30.38,NW,315,3.0,3.0,90,0.00,,,0.00,18,Wunderground v.1.15,2013-03-13 12:44:00,
2013-03-13 07:45:00,12.3,9.9,30.38,NW,315,1.0,3.0,90,0.00,,,0.00,18,Wunderground v.1.15,2013-03-13 12:45:00,
2013-03-13 07:46:00,12.3,9.9,30.38,NW,315,1.0,3.0,90,0.00,,,0.00,19,Wunderground v.1.15,2013-03-13 12:46:00,
2013-03-13 07:50:00,12.3,9.9,30.38,NW,315,2.0,4.0,90,0.00,,,0.00,23,Wunderground v.1.15,2013-03-13 12:50:00,
2013-03-13 07:51:00,12.2,9.8,30.38,NW,315,0.0,2.0,90,0.00,,,0.00,25,Wunderground v.1.15,2013-03-13 12:51:00,
2013-03-13 07:53:00,12.4,10.0,30.38,NW,315,2.0,2.0,90,0.00,,,0.00,28,Wunderground v.1.15,2013-03-13 12:53:00,
2013-03-13 07:55:00,12.5,10.1,30.38,NW,315,2.0,3.0,90,0.00,,,0.00,30,Wunderground v.1.15,2013-03-13 12:55:00,
2013-03-13 07:57:00,12.5,10.1,30.39,NW,315,3.0,4.0,90,0.00,,,0.00,35,Wunderground v.1.15,2013-03-13 12:57:00,
2013-03-13 08:01:00,12.5,10.1,30.39,NW,315,0.0,2.0,90,0.00,,,0.00,44,Wunderground v.1.15,2013-03-13 13:01:00,
2013-03-13 08:02:00,12.5,10.1,30.39,NW,315,0.0,2.0,90,0.00,,,0.00,47,Wunderground v.1.15,2013-03-13 13:02:00,
2013-03-13 08:04:00,12.6,10.2,30.39,NW,315,0.0,2.0,90,0.00,,,0.00,49,Wunderground v.1.15,2013-03-13 13:04:00,
2013-03-13 08:08:00,13.2,10.8,30.39,NW,315,0.0,3.0,90,0.00,,,0.00,62,Wunderground v.1.15,2013-03-13 13:08:00,
2013-03-13 08:09:00,13.3,10.9,30.39,NW,315,0.0,3.0,90,0.00,,,0.00,62,Wunderground v.1.15,2013-03-13 13:09:00,
2013-03-13 08:14:00,13.6,11.2,30.39,NW,315,1.0,3.0,90,0.00,,,0.00,74,Wunderground v.1.15,2013-03-13 13:14:00,
2013-03-13 08:15:00,13.6,11.2,30.39,NW,315,3.0,3.0,90,0.00,,,0.00,77,Wunderground v.1.15,2013-03-13 13:15:00,
2013-03-13 08:17:00,13.5,10.9,30.39,NW,316,3.0,4.0,89,0.00,,,0.00,84,Wunderground v.1.15,2013-03-13 13:17:00,
2013-03-13 08:19:00,13.5,10.9,30.39,NW,316,2.0,4.0,89,0.00,,,0.00,90,Wunderground v.1.15,2013-03-13 13:19:00,
2013-03-13 08:20:00,13.4,10.8,30.39,NW,316,3.0,4.0,89,0.00,,,0.00,93,Wunderground v.1.15,2013-03-13 13:20:00,
2013-03-13 08:22:00,13.7,11.3,30.40,NW,316,2.0,2.0,90,0.00,,,0.00,102,Wunderground v.1.15,2013-03-13 13:22:00,
2013-03-13 08:25:00,13.7,11.1,30.40,NW,315,5.0,5.0,89,0.00,,,0.00,111,Wunderground v.1.15,2013-03-13 13:25:00,
2013-03-13 08:27:00,13.8,11.2,30.40,NW,311,5.0,5.0,89,0.00,,,0.00,120,Wunderground v.1.15,2013-03-13 13:27:00,
2013-03-13 08:29:00,13.9,11.3,30.40,NW,310,4.0,5.0,89,0.00,,,0.00,125,Wunderground v.1.15,2013-03-13 13:29:00,
2013-03-13 08:30:00,14.0,11.6,30.40,NW,304,4.0,5.0,90,0.00,,,0.00,132,Wunderground v.1.15,2013-03-13 13:30:00,
2013-03-13 08:32:00,14.2,11.8,30.40,NW,305,6.0,6.0,90,0.00,,,0.00,137,Wunderground v.1.15,2013-03-13 13:32:00,
2013-03-13 08:34:00,14.5,12.1,30.40,NW,306,5.0,6.0,90,0.00,,,0.00,144,Wunderground v.1.15,2013-03-13 13:34:00,
2013-03-13 08:35:00,14.6,12.2,30.40,NW,308,4.0,6.0,90,0.00,,,0.00,146,Wunderground v.1.15,2013-03-13 13:35:00,
2013-03-13 08:37:00,14.7,12.3,30.40,NW,311,5.0,6.0,90,0.00,,,0.00,153,Wunderground v.1.15,2013-03-13 13:37:00,
2013-03-13 08:40:00,14.8,12.1,30.41,NW,311,4.0,5.0,89,0.00,,,0.00,165,Wunderground v.1.15,2013-03-13 13:40:00,
2013-03-13 08:42:00,14.9,12.2,30.41,WNW,301,5.0,5.0,89,0.00,,,0.00,174,Wunderground v.1.15,2013-03-13 13:42:00,
2013-03-13 08:44:00,15.0,12.3,30.41,WNW,301,5.0,5.0,89,0.00,,,0.00,176,Wunderground v.1.15,2013-03-13 13:44:00,
2013-03-13 08:47:00,15.4,12.7,30.41,NW,309,5.0,6.0,89,0.00,,,0.00,195,Wunderground v.1.15,2013-03-13 13:47:00,
2013-03-13 08:48:00,15.5,12.8,30.41,NW,306,5.0,6.0,89,0.00,,,0.00,199,Wunderground v.1.15,2013-03-13 13:48:00,
2013-03-13 08:49:00,15.5,12.8,30.41,WNW,303,6.0,7.0,89,0.00,,,0.00,200,Wunderground v.1.15,2013-03-13 13:49:00,
2013-03-13 08:50:00,15.6,12.9,30.41,WNW,302,7.0,7.0,89,0.00,,,0.00,200,Wunderground v.1.15,2013-03-13 13:50:00,
2013-03-13 08:54:00,15.8,13.1,30.41,NW,315,4.0,7.0,89,0.00,,,0.00,216,Wunderground v.1.15,2013-03-13 13:54:00,
2013-03-13 08:55:00,15.8,12.9,30.41,NW,315,4.0,7.0,88,0.00,,,0.00,218,Wunderground v.1.15,2013-03-13 13:55:00,
2013-03-13 08:57:00,15.8,12.9,30.41,NW,314,6.0,7.0,88,0.00,,,0.00,227,Wunderground v.1.15,2013-03-13 13:57:00,
2013-03-13 08:59:00,15.9,13.0,30.41,NW,314,2.0,7.0,88,0.00,,,0.00,239,Wunderground v.1.15,2013-03-13 13:59:00,
2013-03-13 09:01:00,15.9,13.0,30.41,NW,314,3.0,5.0,88,0.00,,,0.00,241,Wunderground v.1.15,2013-03-13 14:01:00,
2013-03-13 09:02:00,15.9,13.0,30.41,NW,314,3.0,5.0,88,0.00,,,0.00,244,Wunderground v.1.15,2013-03-13 14:02:00,
2013-03-13 09:06:00,16.1,13.4,30.41,NW,311,3.0,5.0,89,0.00,,,0.00,257,Wunderground v.1.15,2013-03-13 14:06:00,
2013-03-13 09:07:00,16.2,13.5,30.42,NW,313,3.0,5.0,89,0.00,,,0.00,264,Wunderground v.1.15,2013-03-13 14:07:00,
2013-03-13 09:10:00,16.6,13.9,30.42,NW,304,7.0,7.0,89,0.00,,,0.00,272,Wunderground v.1.15,2013-03-13 14:10:00,
2013-03-13 09:12:00,16.8,14.1,30.42,NW,307,7.0,7.0,89,0.00,,,0.00,278,Wunderground v.1.15,2013-03-13 14:12:00,
2013-03-13 09:13:00,16.8,14.1,30.42,NW,305,6.0,7.0,89,0.00,,,0.00,278,Wunderground v.1.15,2013-03-13 14:13:00,
2013-03-13 09:15:00,17.1,14.2,30.42,NW,307,6.0,7.0,88,0.00,,,0.00,287,Wunderground v.1.15,2013-03-13 14:15:00,
2013-03-13 09:16:00,17.1,14.2,30.42,NW,306,6.0,7.0,88,0.00,,,0.00,288,Wunderground v.1.15,2013-03-13 14:16:00,
2013-03-13 09:18:00,17.3,14.4,30.42,NW,313,7.0,7.0,88,0.00,,,0.00,294,Wunderground v.1.15,2013-03-13 14:18:00,
2013-03-13 09:19:00,17.3,14.4,30.42,NW,313,8.0,8.0,88,0.00,,,0.00,299,Wunderground v.1.15,2013-03-13 14:19:00,
2013-03-13 09:20:00,17.5,14.6,30.42,NW,318,8.0,9.0,88,0.00,,,0.00,302,Wunderground v.1.15,2013-03-13 14:20:00,
2013-03-13 09:21:00,17.6,14.7,30.42,NW,311,7.0,9.0,88,0.00,,,0.00,306,Wunderground v.1.15,2013-03-13 14:21:00,
2013-03-13 09:23:00,17.7,14.8,30.42,NW,317,9.0,10.0,88,0.00,,,0.00,315,Wunderground v.1.15,2013-03-13 14:23:00,
2013-03-13 09:25:00,17.9,14.9,30.42,NW,316,6.0,10.0,88,0.00,,,0.00,318,Wunderground v.1.15,2013-03-13 14:25:00,
2013-03-13 09:26:00,17.9,14.7,30.42,NW,315,7.0,10.0,87,0.00,,,0.00,322,Wunderground v.1.15,2013-03-13 14:26:00,
2013-03-13 09:28:00,17.9,14.7,30.42,NW,317,6.0,10.0,87,0.00,,,0.00,327,Wunderground v.1.15,2013-03-13 14:28:00,
2013-03-13 09:32:00,18.1,14.9,30.43,NW,314,6.0,8.0,87,0.00,,,0.00,339,Wunderground v.1.15,2013-03-13 14:32:00,
2013-03-13 09:33:00,18.2,15.0,30.43,NW,309,5.0,8.0,87,0.00,,,0.00,343,Wunderground v.1.15,2013-03-13 14:33:00,
2013-03-13 09:35:00,18.2,15.0,30.43,NW,314,7.0,8.0,87,0.00,,,0.00,353,Wunderground v.1.15,2013-03-13 14:35:00,
2013-03-13 09:38:00,18.4,15.2,30.43,NW,316,9.0,9.0,87,0.00,,,0.00,360,Wunderground v.1.15,2013-03-13 14:38:00,
2013-03-13 09:39:00,18.4,15.2,30.43,NW,313,7.0,9.0,87,0.00,,,0.00,364,Wunderground v.1.15,2013-03-13 14:39:00,
2013-03-13 09:42:00,18.6,15.4,30.43,NW,308,6.0,8.0,87,0.00,,,0.00,374,Wunderground v.1.15,2013-03-13 14:42:00,
2013-03-13 09:44:00,18.8,15.6,30.43,NW,313,5.0,8.0,87,0.00,,,0.00,380,Wunderground v.1.15,2013-03-13 14:44:00,
2013-03-13 09:45:00,18.8,15.6,30.43,NW,317,5.0,8.0,87,0.00,,,0.00,381,Wunderground v.1.15,2013-03-13 14:45:00,
2013-03-13 09:46:00,18.9,15.7,30.43,NW,313,7.0,8.0,87,0.00,,,0.00,385,Wunderground v.1.15,2013-03-13 14:46:00,
2013-03-13 09:48:00,19.0,15.8,30.43,NW,312,8.0,9.0,87,0.00,,,0.00,390,Wunderground v.1.15,2013-03-13 14:48:00,
2013-03-13 09:50:00,19.2,16.0,30.43,NW,315,7.0,7.0,87,0.00,,,0.00,399,Wunderground v.1.15,2013-03-13 14:50:00,
2013-03-13 09:52:00,19.3,15.8,30.43,NW,309,9.0,9.0,86,0.00,,,0.00,404,Wunderground v.1.15,2013-03-13 14:52:00,
2013-03-13 09:54:00,19.4,15.9,30.43,NW,319,6.0,9.0,86,0.00,,,0.00,410,Wunderground v.1.15,2013-03-13 14:54:00,
2013-03-13 09:56:00,19.4,15.9,30.44,NW,306,9.0,9.0,86,0.00,,,0.00,418,Wunderground v.1.15,2013-03-13 14:56:00,
2013-03-13 09:57:00,19.5,16.0,30.44,NW,309,8.0,9.0,86,0.00,,,0.00,422,Wunderground v.1.15,2013-03-13 14:57:00,
2013-03-13 10:00:00,19.7,16.2,30.44,NW,306,7.0,8.0,86,0.00,,,0.00,431,Wunderground v.1.15,2013-03-13 15:00:00,
2013-03-13 10:02:00,19.8,16.3,30.44,NW,306,6.0,8.0,86,0.00,,,0.00,438,Wunderground v.1.15,2013-03-13 15:02:00,
2013-03-13 10:03:00,19.9,16.4,30.44,NW,307,8.0,8.0,86,0.00,,,0.00,441,Wunderground v.1.15,2013-03-13 15:03:00,
2013-03-13 10:05:00,20.0,16.5,30.44,WNW,298,8.0,8.0,86,0.00,,,0.00,448,Wunderground v.1.15,2013-03-13 15:05:00,
2013-03-13 10:07:00,20.2,16.7,30.44,NW,308,7.0,8.0,86,0.00,,,0.00,454,Wunderground v.1.15,2013-03-13 15:07:00,
2013-03-13 10:08:00,20.2,16.7,30.44,NW,304,9.0,9.0,86,0.00,,,0.00,457,Wunderground v.1.15,2013-03-13 15:08:00,
2013-03-13 10:09:00,20.2,16.7,30.44,NW,306,7.0,9.0,86,0.00,,,0.00,459,Wunderground v.1.15,2013-03-13 15:09:00,
2013-03-13 10:11:00,20.4,16.9,30.44,WNW,293,7.0,8.0,86,0.00,,,0.00,466,Wunderground v.1.15,2013-03-13 15:11:00,
2013-03-13 10:13:00,20.5,17.0,30.44,NW,313,8.0,9.0,86,0.00,,,0.00,473,Wunderground v.1.15,2013-03-13 15:13:00,
2013-03-13 10:14:00,20.5,17.0,30.44,WNW,301,6.0,9.0,86,0.00,,,0.00,476,Wunderground v.1.15,2013-03-13 15:14:00,
2013-03-13 10:15:00,20.6,17.1,30.44,WNW,298,9.0,9.0,86,0.00,,,0.00,480,Wunderground v.1.15,2013-03-13 15:15:00,
2013-03-13 10:18:00,20.7,16.9,30.44,WNW,298,8.0,9.0,85,0.00,,,0.00,489,Wunderground v.1.15,2013-03-13 15:18:00,
2013-03-13 10:19:00,20.8,17.0,30.44,WNW,303,7.0,9.0,85,0.00,,,0.00,490,Wunderground v.1.15,2013-03-13 15:19:00,
2013-03-13 10:20:00,20.8,17.0,30.45,WNW,301,7.0,8.0,85,0.00,,,0.00,494,Wunderground v.1.15,2013-03-13 15:20:00,
2013-03-13 10:23:00,20.9,17.1,30.44,WNW,300,6.0,8.0,85,0.00,,,0.00,506,Wunderground v.1.15,2013-03-13 15:23:00,
2013-03-13 10:25:00,21.0,17.2,30.45,NW,304,7.0,8.0,85,0.00,,,0.00,508,Wunderground v.1.15,2013-03-13 15:25:00,
2013-03-13 10:28:00,21.2,17.4,30.45,WNW,301,8.0,8.0,85,0.00,,,0.00,520,Wunderground v.1.15,2013-03-13 15:28:00,
2013-03-13 10:29:00,21.2,17.4,30.45,WNW,302,7.0,8.0,85,0.00,,,0.00,520,Wunderground v.1.15,2013-03-13 15:29:00,
2013-03-13 10:31:00,21.4,17.6,30.45,NW,309,6.0,8.0,85,0.00,,,0.00,527,Wunderground v.1.15,2013-03-13 15:31:00,
2013-03-13 10:33:00,21.5,17.7,30.45,NW,315,6.0,9.0,85,0.00,,,0.00,534,Wunderground v.1.15,2013-03-13 15:33:00,
2013-03-13 10:34:00,21.6,17.8,30.44,WNW,300,7.0,9.0,85,0.00,,,0.00,536,Wunderground v.1.15,2013-03-13 15:34:00,
2013-03-13 10:35:00,21.6,17.8,30.44,NW,312,7.0,9.0,85,0.00,,,0.00,540,Wunderground v.1.15,2013-03-13 15:35:00,
2013-03-13 10:37:00,21.7,17.9,30.44,WNW,302,6.0,9.0,85,0.00,,,0.00,545,Wunderground v.1.15,2013-03-13 15:37:00,
2013-03-13 10:39:00,21.8,18.0,30.44,WNW,298,6.0,10.0,85,0.00,,,0.00,550,Wunderground v.1.15,2013-03-13 15:39:00,
2013-03-13 10:40:00,21.9,17.8,30.44,NW,311,6.0,7.0,84,0.00,,,0.00,552,Wunderground v.1.15,2013-03-13 15:40:00,
2013-03-13 10:41:00,21.9,17.8,30.44,NW,317,6.0,7.0,84,0.00,,,0.00,555,Wunderground v.1.15,2013-03-13 15:41:00,
2013-03-13 10:43:00,22.0,17.9,30.44,NW,304,5.0,8.0,84,0.00,,,0.00,563,Wunderground v.1.15,2013-03-13 15:43:00,
2013-03-13 10:45:00,22.1,18.0,30.45,WNW,299,8.0,8.0,84,0.00,,,0.00,568,Wunderground v.1.15,2013-03-13 15:45:00,
2013-03-13 10:46:00,22.2,18.1,30.45,WNW,295,7.0,8.0,84,0.00,,,0.00,570,Wunderground v.1.15,2013-03-13 15:46:00,
2013-03-13 10:48:00,22.4,18.3,30.45,WNW,302,5.0,8.0,84,0.00,,,0.00,577,Wunderground v.1.15,2013-03-13 15:48:00,
2013-03-13 10:50:00,22.4,18.3,30.45,WNW,295,5.0,7.0,84,0.00,,,0.00,582,Wunderground v.1.15,2013-03-13 15:50:00,
2013-03-13 10:52:00,22.5,18.1,30.45,WNW,302,6.0,7.0,83,0.00,,,0.00,587,Wunderground v.1.15,2013-03-13 15:52:00,
2013-03-13 10:53:00,22.5,18.4,30.45,NW,309,6.0,7.0,84,0.00,,,0.00,589,Wunderground v.1.15,2013-03-13 15:53:00,
2013-03-13 10:54:00,22.6,18.5,30.45,WNW,295,6.0,7.0,84,0.00,,,0.00,592,Wunderground v.1.15,2013-03-13 15:54:00,
2013-03-13 10:57:00,22.7,18.3,30.45,NW,312,5.0,8.0,83,0.00,,,0.00,598,Wunderground v.1.15,2013-03-13 15:57:00,
2013-03-13 10:58:00,22.7,18.3,30.45,NW,304,7.0,8.0,83,0.00,,,0.00,605,Wunderground v.1.15,2013-03-13 15:58:00,
2013-03-13 10:59:00,22.7,18.3,30.45,NW,311,6.0,8.0,83,0.00,,,0.00,605,Wunderground v.1.15,2013-03-13 15:59:00,
2013-03-13 11:02:00,22.7,18.3,30.45,NW,305,6.0,7.0,83,0.00,,,0.00,613,Wunderground v.1.15,2013-03-13 16:02:00,
2013-03-13 11:03:00,22.8,18.7,30.45,WNW,301,6.0,7.0,84,0.00,,,0.00,615,Wunderground v.1.15,2013-03-13 16:03:00,
2013-03-13 11:05:00,22.9,18.8,30.45,WNW,300,6.0,7.0,84,0.00,,,0.00,622,Wunderground v.1.15,2013-03-13 16:05:00,
2013-03-13 11:07:00,23.1,19.0,30.45,WNW,288,6.0,7.0,84,0.00,,,0.00,628,Wunderground v.1.15,2013-03-13 16:07:00,
2013-03-13 11:10:00,23.1,18.7,30.45,WNW,291,4.0,7.0,83,0.00,,,0.00,629,Wunderground v.1.15,2013-03-13 16:10:00,
2013-03-13 11:12:00,23.3,19.2,30.45,WNW,289,7.0,8.0,84,0.00,,,0.00,638,Wunderground v.1.15,2013-03-13 16:12:00,
2013-03-13 11:14:00,23.4,19.3,30.45,WNW,286,6.0,8.0,84,0.00,,,0.00,638,Wunderground v.1.15,2013-03-13 16:14:00,
2013-03-13 11:15:00,23.5,19.4,30.45,WNW,301,7.0,8.0,84,0.00,,,0.00,645,Wunderground v.1.15,2013-03-13 16:15:00,
2013-03-13 11:16:00,23.5,19.4,30.45,WNW,290,5.0,8.0,84,0.00,,,0.00,647,Wunderground v.1.15,2013-03-13 16:16:00,
2013-03-13 11:18:00,23.5,19.1,30.46,WNW,285,8.0,8.0,83,0.00,,,0.00,652,Wunderground v.1.15,2013-03-13 16:18:00,
2013-03-13 11:19:00,23.6,19.2,30.46,WNW,284,7.0,8.0,83,0.00,,,0.00,650,Wunderground v.1.15,2013-03-13 16:19:00,
2013-03-13 11:21:00,23.7,19.6,30.45,WNW,284,6.0,7.0,84,0.00,,,0.00,657,Wunderground v.1.15,2013-03-13 16:21:00,
2013-03-13 11:22:00,23.8,19.7,30.45,WNW,292,7.0,9.0,84,0.00,,,0.00,659,Wunderground v.1.15,2013-03-13 16:22:00,
2013-03-13 11:25:00,24.0,19.6,30.46,WNW,296,8.0,9.0,83,0.00,,,0.00,666,Wunderground v.1.15,2013-03-13 16:25:00,
2013-03-13 11:26:00,24.1,19.7,30.46,WNW,288,9.0,10.0,83,0.00,,,0.00,668,Wunderground v.1.15,2013-03-13 16:26:00,
2013-03-13 11:28:00,24.1,19.7,30.46,WNW,290,8.0,10.0,83,0.00,,,0.00,673,Wunderground v.1.15,2013-03-13 16:28:00,
2013-03-13 11:30:00,24.3,19.9,30.46,WNW,292,8.0,9.0,83,0.00,,,0.00,679,Wunderground v.1.15,2013-03-13 16:30:00,
2013-03-13 11:32:00,24.3,19.9,30.46,WNW,290,10.0,10.0,83,0.00,,,0.00,682,Wunderground v.1.15,2013-03-13 16:32:00,
2013-03-13 11:34:00,24.3,19.6,30.46,WNW,297,9.0,10.0,82,0.00,,,0.00,686,Wunderground v.1.15,2013-03-13 16:34:00,
2013-03-13 11:36:00,24.4,19.7,30.46,WNW,302,8.0,10.0,82,0.00,,,0.00,691,Wunderground v.1.15,2013-03-13 16:36:00,
2013-03-13 11:37:00,24.4,19.7,30.46,WNW,302,8.0,10.0,82,0.00,,,0.00,694,Wunderground v.1.15,2013-03-13 16:37:00,
2013-03-13 11:39:00,24.4,19.7,30.46,WNW,298,7.0,10.0,82,0.00,,,0.00,696,Wunderground v.1.15,2013-03-13 16:39:00,
2013-03-13 11:40:00,24.4,19.4,30.46,WNW,303,8.0,10.0,81,0.00,,,0.00,698,Wunderground v.1.15,2013-03-13 16:40:00,
2013-03-13 11:42:00,24.4,19.4,30.46,WNW,293,7.0,9.0,81,0.00,,,0.00,703,Wunderground v.1.15,2013-03-13 16:42:00,
2013-03-13 11:44:00,24.5,19.8,30.46,WNW,301,9.0,9.0,82,0.00,,,0.00,705,Wunderground v.1.15,2013-03-13 16:44:00,
2013-03-13 11:47:00,24.7,20.0,30.46,WNW,292,7.0,10.0,82,0.00,,,0.00,710,Wunderground v.1.15,2013-03-13 16:47:00,
2013-03-13 11:49:00,24.8,20.1,30.46,WNW,293,7.0,10.0,82,0.00,,,0.00,714,Wunderground v.1.15,2013-03-13 16:49:00,
2013-03-13 11:50:00,24.8,20.1,30.46,WNW,289,7.0,8.0,82,0.00,,,0.00,717,Wunderground v.1.15,2013-03-13 16:50:00,
2013-03-13 11:52:00,24.7,20.0,30.46,NW,306,7.0,8.0,82,0.00,,,0.00,722,Wunderground v.1.15,2013-03-13 16:52:00,
2013-03-13 11:53:00,24.7,20.0,30.46,NW,306,5.0,8.0,82,0.00,,,0.00,722,Wunderground v.1.15,2013-03-13 16:53:00,
2013-03-13 11:54:00,24.7,20.0,30.46,WNW,302,6.0,8.0,82,0.00,,,0.00,724,Wunderground v.1.15,2013-03-13 16:54:00,
2013-03-13 11:58:00,24.8,20.1,30.45,WNW,287,6.0,9.0,82,0.00,,,0.00,729,Wunderground v.1.15,2013-03-13 16:58:00,
2013-03-13 11:59:00,24.8,19.8,30.46,NW,311,6.0,9.0,81,0.00,,,0.00,731,Wunderground v.1.15,2013-03-13 16:59:00,
2013-03-13 12:00:00,24.8,19.8,30.46,WNW,303,8.0,8.0,81,0.00,,,0.00,735,Wunderground v.1.15,2013-03-13 17:00:00,
2013-03-13 12:03:00,25.1,19.8,30.45,WNW,297,6.0,9.0,80,0.00,,,0.00,738,Wunderground v.1.15,2013-03-13 17:03:00,
2013-03-13 12:04:00,25.1,19.8,30.45,WNW,294,8.0,9.0,80,0.00,,,0.00,740,Wunderground v.1.15,2013-03-13 17:04:00,
2013-03-13 12:06:00,25.2,19.9,30.45,WNW,298,7.0,9.0,80,0.00,,,0.00,744,Wunderground v.1.15,2013-03-13 17:06:00,
2013-03-13 12:08:00,25.3,20.0,30.45,WNW,294,8.0,9.0,80,0.00,,,0.00,747,Wunderground v.1.15,2013-03-13 17:08:00,
2013-03-13 12:12:00,25.2,19.9,30.45,WNW,300,6.0,8.0,80,0.00,,,0.00,752,Wunderground v.1.15,2013-03-13 17:12:00,
2013-03-13 12:13:00,25.1,19.5,30.45,WNW,296,5.0,8.0,79,0.00,,,0.00,756,Wunderground v.1.15,2013-03-13 17:13:00,
2013-03-13 12:15:00,25.1,19.5,30.45,WNW,289,6.0,8.0,79,0.00,,,0.00,758,Wunderground v.1.15,2013-03-13 17:15:00,
2013-03-13 12:18:00,25.1,19.8,30.45,NW,312,6.0,8.0,80,0.00,,,0.00,761,Wunderground v.1.15,2013-03-13 17:18:00,
2013-03-13 12:19:00,25.2,19.9,30.45,WNW,290,6.0,8.0,80,0.00,,,0.00,765,Wunderground v.1.15,2013-03-13 17:19:00,
2013-03-13 12:21:00,25.3,19.7,30.45,WNW,301,8.0,8.0,79,0.00,,,0.00,766,Wunderground v.1.15,2013-03-13 17:21:00,
2013-03-13 12:23:00,25.4,19.8,30.45,WNW,290,7.0,9.0,79,0.00,,,0.00,768,Wunderground v.1.15,2013-03-13 17:23:00,
2013-03-13 12:26:00,25.5,19.6,30.45,WNW,296,7.0,9.0,78,0.00,,,0.00,772,Wunderground v.1.15,2013-03-13 17:26:00,
2013-03-13 12:29:00,25.6,20.0,30.45,WNW,290,7.0,9.0,79,0.00,,,0.00,773,Wunderground v.1.15,2013-03-13 17:29:00,
2013-03-13 12:31:00,25.7,20.1,30.45,WNW,299,6.0,9.0,79,0.00,,,0.00,777,Wunderground v.1.15,2013-03-13 17:31:00,
2013-03-13 12:35:00,25.7,20.4,30.46,West,273,7.0,9.0,80,0.00,,,0.00,782,Wunderground v.1.15,2013-03-13 17:35:00,
2013-03-13 12:36:00,25.5,20.2,30.46,WNW,285,5.0,9.0,80,0.00,,,0.00,784,Wunderground v.1.15,2013-03-13 17:36:00,
2013-03-13 12:39:00,25.3,20.0,30.45,WNW,291,4.0,9.0,80,0.00,,,0.00,786,Wunderground v.1.15,2013-03-13 17:39:00,
2013-03-13 12:40:00,25.3,20.0,30.45,WNW,290,3.0,7.0,80,0.00,,,0.00,788,Wunderground v.1.15,2013-03-13 17:40:00,
2013-03-13 12:43:00,25.1,19.5,30.45,WNW,293,5.0,7.0,79,0.00,,,0.00,789,Wunderground v.1.15,2013-03-13 17:43:00,
2013-03-13 12:44:00,25.2,19.3,30.45,WNW,288,3.0,7.0,78,0.00,,,0.00,789,Wunderground v.1.15,2013-03-13 17:44:00,
2013-03-13 12:46:00,25.2,19.9,30.46,WNW,291,3.0,7.0,80,0.00,,,0.00,791,Wunderground v.1.15,2013-03-13 17:46:00,
2013-03-13 12:47:00,25.2,19.9,30.46,WNW,290,4.0,7.0,80,0.00,,,0.00,793,Wunderground v.1.15,2013-03-13 17:47:00,
2013-03-13 12:48:00,25.3,20.3,30.45,West,265,7.0,7.0,81,0.00,,,0.00,793,Wunderground v.1.15,2013-03-13 17:48:00,
2013-03-13 12:51:00,25.2,20.2,30.46,WNW,282,5.0,7.0,81,0.00,,,0.00,795,Wunderground v.1.15,2013-03-13 17:51:00,
2013-03-13 12:52:00,25.2,20.2,30.46,West,281,6.0,7.0,81,0.00,,,0.00,795,Wunderground v.1.15,2013-03-13 17:52:00,
2013-03-13 12:54:00,25.2,20.2,30.46,West,274,6.0,7.0,81,0.00,,,0.00,796,Wunderground v.1.15,2013-03-13 17:54:00,
2013-03-13 12:57:00,25.2,19.9,30.46,WNW,292,5.0,7.0,80,0.00,,,0.00,798,Wunderground v.1.15,2013-03-13 17:57:00,
2013-03-13 12:59:00,25.3,20.0,30.45,West,275,3.0,7.0,80,0.00,,,0.00,800,Wunderground v.1.15,2013-03-13 17:59:00,
2013-03-13 13:00:00,25.3,20.0,30.45,WNW,282,5.0,7.0,80,0.00,,,0.00,800,Wunderground v.1.15,2013-03-13 18:00:00,
2013-03-13 13:03:00,25.5,20.5,30.46,WNW,288,4.0,6.0,81,0.00,,,0.00,803,Wunderground v.1.15,2013-03-13 18:03:00,
2013-03-13 13:04:00,25.3,20.0,30.45,West,281,3.0,6.0,80,0.00,,,0.00,803,Wunderground v.1.15,2013-03-13 18:04:00,
2013-03-13 13:05:00,25.3,20.0,30.45,West,281,4.0,6.0,80,0.00,,,0.00,803,Wunderground v.1.15,2013-03-13 18:05:00,
2013-03-13 13:08:00,25.2,20.2,30.45,WSW,257,3.0,6.0,81,0.00,,,0.00,807,Wunderground v.1.15,2013-03-13 18:08:00,
2013-03-13 13:10:00,25.3,20.6,30.45,West,280,4.0,5.0,82,0.00,,,0.00,809,Wunderground v.1.15,2013-03-13 18:10:00,
2013-03-13 13:11:00,25.3,20.6,30.45,West,280,4.0,5.0,82,0.00,,,0.00,809,Wunderground v.1.15,2013-03-13 18:11:00,
2013-03-13 13:12:00,25.3,20.3,30.45,West,281,2.0,5.0,81,0.00,,,0.00,809,Wunderground v.1.15,2013-03-13 18:12:00,
2013-03-13 13:14:00,25.3,20.3,30.45,West,280,5.0,5.0,81,0.00,,,0.00,809,Wunderground v.1.15,2013-03-13 18:14:00,
2013-03-13 13:16:00,25.3,20.0,30.45,WNW,282,4.0,5.0,80,0.00,,,0.00,810,Wunderground v.1.15,2013-03-13 18:16:00,
2013-03-13 13:18:00,25.4,20.1,30.45,WNW,295,4.0,5.0,80,0.00,,,0.00,810,Wunderground v.1.15,2013-03-13 18:18:00,
2013-03-13 13:19:00,25.6,20.3,30.45,WNW,291,4.0,5.0,80,0.00,,,0.00,809,Wunderground v.1.15,2013-03-13 18:19:00,
2013-03-13 13:22:00,25.5,20.5,30.45,WNW,286,3.0,4.0,81,0.00,,,0.00,810,Wunderground v.1.15,2013-03-13 18:22:00,
2013-03-13 13:23:00,25.4,20.1,30.46,West,267,4.0,5.0,80,0.00,,,0.00,810,Wunderground v.1.15,2013-03-13 18:23:00,
2013-03-13 13:27:00,25.4,20.1,30.46,West,275,4.0,6.0,80,0.00,,,0.00,810,Wunderground v.1.15,2013-03-13 18:27:00,
2013-03-13 13:29:00,25.4,20.1,30.46,West,275,3.0,6.0,80,0.00,,,0.00,810,Wunderground v.1.15,2013-03-13 18:29:00,
2013-03-13 13:34:00,25.5,19.9,30.45,West,275,1.0,4.0,79,0.00,,,0.00,810,Wunderground v.1.15,2013-03-13 18:34:00,
2013-03-13 13:35:00,25.5,19.9,30.45,West,275,4.0,4.0,79,0.00,,,0.00,812,Wunderground v.1.15,2013-03-13 18:35:00,
2013-03-13 13:36:00,25.5,19.9,30.45,West,275,3.0,4.0,79,0.00,,,0.00,812,Wunderground v.1.15,2013-03-13 18:36:00,
2013-03-13 13:40:00,25.7,20.4,30.45,West,274,4.0,4.0,80,0.00,,,0.00,810,Wunderground v.1.15,2013-03-13 18:40:00,
2013-03-13 13:41:00,25.6,20.0,30.45,West,274,4.0,4.0,79,0.00,,,0.00,810,Wunderground v.1.15,2013-03-13 18:41:00,
2013-03-13 13:43:00,25.6,20.0,30.45,West,269,3.0,5.0,79,0.00,,,0.00,810,Wunderground v.1.15,2013-03-13 18:43:00,
2013-03-13 13:46:00,25.6,20.3,30.45,West,269,3.0,5.0,80,0.00,,,0.00,810,Wunderground v.1.15,2013-03-13 18:46:00,
2013-03-13 13:47:00,25.8,20.8,30.45,West,269,2.0,5.0,81,0.00,,,0.00,810,Wunderground v.1.15,2013-03-13 18:47:00,
2013-03-13 13:48:00,25.8,20.5,30.45,West,269,2.0,5.0,80,0.00,,,0.00,810,Wunderground v.1.15,2013-03-13 18:48:00,
2013-03-13 13:50:00,25.8,20.5,30.45,West,269,2.0,3.0,80,0.00,,,0.00,809,Wunderground v.1.15,2013-03-13 18:50:00,
2013-03-13 13:51:00,25.7,20.4,30.45,West,269,3.0,3.0,80,0.00,,,0.00,809,Wunderground v.1.15,2013-03-13 18:51:00,
2013-03-13 13:53:00,25.7,20.1,30.45,West,269,1.0,3.0,79,0.00,,,0.00,807,Wunderground v.1.15,2013-03-13 18:53:00,
2013-03-13 13:56:00,25.7,19.8,30.45,West,269,0.0,3.0,78,0.00,,,0.00,805,Wunderground v.1.15,2013-03-13 18:56:00,
2013-03-13 13:58:00,25.7,19.8,30.45,West,269,1.0,3.0,78,0.00,,,0.00,803,Wunderground v.1.15,2013-03-13 18:58:00,
2013-03-13 13:59:00,25.8,20.2,30.45,West,269,0.0,3.0,79,0.00,,,0.00,805,Wunderground v.1.15,2013-03-13 18:59:00,
2013-03-13 14:02:00,25.9,20.0,30.45,West,269,1.0,2.0,78,0.00,,,0.00,800,Wunderground v.1.15,2013-03-13 19:02:00,
2013-03-13 14:03:00,25.9,20.0,30.45,West,269,1.0,2.0,78,0.00,,,0.00,802,Wunderground v.1.15,2013-03-13 19:03:00,
2013-03-13 14:04:00,25.9,20.3,30.45,West,269,2.0,2.0,79,0.00,,,0.00,802,Wunderground v.1.15,2013-03-13 19:04:00,
2013-03-13 14:08:00,26.0,20.1,30.44,West,269,0.0,2.0,78,0.00,,,0.00,800,Wunderground v.1.15,2013-03-13 19:08:00,
2013-03-13 14:09:00,26.0,20.1,30.44,West,269,0.0,2.0,78,0.00,,,0.00,800,Wunderground v.1.15,2013-03-13 19:09:00,
2013-03-13 14:10:00,26.0,20.1,30.44,West,269,0.0,1.0,78,0.00,,,0.00,798,Wunderground v.1.15,2013-03-13 19:10:00,
2013-03-13 14:14:00,26.4,20.8,30.44,West,269,3.0,3.0,79,0.00,,,0.00,795,Wunderground v.1.15,2013-03-13 19:14:00,
2013-03-13 14:15:00,26.3,20.4,30.44,West,269,3.0,3.0,78,0.00,,,0.00,793,Wunderground v.1.15,2013-03-13 19:15:00,
2013-03-13 14:16:00,26.2,20.3,30.44,West,269,2.0,3.0,78,0.00,,,0.00,793,Wunderground v.1.15,2013-03-13 19:16:00,
2013-03-13 14:19:00,26.3,20.7,30.44,West,269,1.0,3.0,79,0.00,,,0.00,791,Wunderground v.1.15,2013-03-13 19:19:00,
2013-03-13 14:21:00,26.4,21.1,30.44,WSW,251,3.0,3.0,80,0.00,,,0.00,789,Wunderground v.1.15,2013-03-13 19:21:00,
2013-03-13 14:22:00,26.5,21.5,30.44,WSW,254,0.0,3.0,81,0.00,,,0.00,789,Wunderground v.1.15,2013-03-13 19:22:00,
2013-03-13 14:24:00,26.4,20.2,30.43,WSW,256,0.0,3.0,77,0.00,,,0.00,786,Wunderground v.1.15,2013-03-13 19:24:00,
2013-03-13 14:25:00,26.4,20.2,30.43,WSW,256,0.0,3.0,77,0.00,,,0.00,786,Wunderground v.1.15,2013-03-13 19:25:00,
2013-03-13 14:26:00,26.4,20.5,30.43,WSW,251,2.0,3.0,78,0.00,,,0.00,786,Wunderground v.1.15,2013-03-13 19:26:00,
2013-03-13 14:28:00,26.3,20.4,30.43,WSW,250,2.0,3.0,78,0.00,,,0.00,780,Wunderground v.1.15,2013-03-13 19:28:00,
2013-03-13 14:30:00,26.4,20.5,30.43,WSW,250,2.0,3.0,78,0.00,,,0.00,780,Wunderground v.1.15,2013-03-13 19:30:00,
2013-03-13 14:31:00,26.4,20.8,30.43,WSW,256,2.0,2.0,79,0.00,,,0.00,777,Wunderground v.1.15,2013-03-13 19:31:00,
2013-03-13 14:32:00,26.5,20.6,30.43,WSW,256,2.0,2.0,78,0.00,,,0.00,777,Wunderground v.1.15,2013-03-13 19:32:00,
2013-03-13 14:34:00,26.5,20.6,30.43,WSW,257,2.0,3.0,78,0.00,,,0.00,775,Wunderground v.1.15,2013-03-13 19:34:00,
2013-03-13 14:35:00,26.6,20.7,30.43,WSW,257,0.0,3.0,78,0.00,,,0.00,772,Wunderground v.1.15,2013-03-13 19:35:00,
2013-03-13 14:37:00,26.6,20.7,30.43,WSW,257,0.0,3.0,78,0.00,,,0.00,770,Wunderground v.1.15,2013-03-13 19:37:00,
2013-03-13 14:38:00,26.6,20.7,30.43,WSW,257,2.0,3.0,78,0.00,,,0.00,770,Wunderground v.1.15,2013-03-13 19:38:00,
2013-03-13 14:40:00,26.6,21.0,30.43,WSW,257,1.0,3.0,79,0.00,,,0.00,766,Wunderground v.1.15,2013-03-13 19:40:00,
2013-03-13 14:41:00,26.7,20.8,30.43,WSW,257,0.0,3.0,78,0.00,,,0.00,765,Wunderground v.1.15,2013-03-13 19:41:00,
2013-03-13 14:44:00,26.7,20.8,30.43,WSW,257,0.0,3.0,78,0.00,,,0.00,761,Wunderground v.1.15,2013-03-13 19:44:00,
2013-03-13 14:45:00,26.7,20.8,30.43,WSW,257,1.0,3.0,78,0.00,,,0.00,761,Wunderground v.1.15,2013-03-13 19:45:00,
2013-03-13 14:48:00,26.9,21.0,30.43,WSW,250,2.0,4.0,78,0.00,,,0.00,758,Wunderground v.1.15,2013-03-13 19:48:00,
2013-03-13 14:50:00,26.9,20.7,30.43,WSW,250,1.0,4.0,77,0.00,,,0.00,754,Wunderground v.1.15,2013-03-13 19:50:00,
2013-03-13 14:53:00,27.0,21.1,30.42,WSW,246,0.0,3.0,78,0.00,,,0.00,749,Wunderground v.1.15,2013-03-13 19:53:00,
2013-03-13 14:54:00,27.2,21.2,30.42,WSW,246,0.0,3.0,78,0.00,,,0.00,747,Wunderground v.1.15,2013-03-13 19:54:00,
2013-03-13 14:55:00,27.1,20.8,30.42,WSW,246,0.0,3.0,77,0.00,,,0.00,749,Wunderground v.1.15,2013-03-13 19:55:00,
2013-03-13 14:59:00,27.2,20.9,30.42,West,267,3.0,4.0,77,0.00,,,0.00,742,Wunderground v.1.15,2013-03-13 19:59:00,
2013-03-13 15:02:00,27.2,20.9,30.42,West,268,3.0,3.0,77,0.00,,,0.00,735,Wunderground v.1.15,2013-03-13 20:02:00,
2013-03-13 15:03:00,27.2,21.2,30.42,West,268,2.0,3.0,78,0.00,,,0.00,735,Wunderground v.1.15,2013-03-13 20:03:00,
2013-03-13 15:04:00,27.2,20.9,30.42,West,270,2.0,4.0,77,0.00,,,0.00,731,Wunderground v.1.15,2013-03-13 20:04:00,
2013-03-13 15:07:00,27.1,21.2,30.42,West,271,3.0,4.0,78,0.00,,,0.00,728,Wunderground v.1.15,2013-03-13 20:07:00,
2013-03-13 15:08:00,27.1,21.2,30.42,West,271,2.0,4.0,78,0.00,,,0.00,724,Wunderground v.1.15,2013-03-13 20:08:00,
2013-03-13 15:10:00,27.2,21.2,30.42,West,271,0.0,2.0,78,0.00,,,0.00,722,Wunderground v.1.15,2013-03-13 20:10:00,
2013-03-13 15:12:00,27.2,20.9,30.42,West,271,0.0,2.0,77,0.00,,,0.00,717,Wunderground v.1.15,2013-03-13 20:12:00,
2013-03-13 15:13:00,27.2,20.9,30.42,West,271,1.0,2.0,77,0.00,,,0.00,717,Wunderground v.1.15,2013-03-13 20:13:00,
2013-03-13 15:16:00,27.3,21.0,30.42,West,271,2.0,3.0,77,0.00,,,0.00,710,Wunderground v.1.15,2013-03-13 20:16:00,
2013-03-13 15:17:00,27.3,21.0,30.42,West,271,1.0,3.0,77,0.00,,,0.00,710,Wunderground v.1.15,2013-03-13 20:17:00,
2013-03-13 15:19:00,27.3,20.7,30.42,West,271,1.0,4.0,76,0.00,,,0.00,707,Wunderground v.1.15,2013-03-13 20:19:00,
2013-03-13 15:22:00,27.3,21.3,30.42,West,278,2.0,2.0,78,0.00,,,0.00,698,Wunderground v.1.15,2013-03-13 20:22:00,
2013-03-13 15:23:00,27.4,21.4,30.42,West,278,2.0,3.0,78,0.00,,,0.00,696,Wunderground v.1.15,2013-03-13 20:23:00,
2013-03-13 15:24:00,27.4,21.1,30.42,West,278,1.0,3.0,77,0.00,,,0.00,694,Wunderground v.1.15,2013-03-13 20:24:00,
2013-03-13 15:27:00,27.5,21.5,30.42,West,278,0.0,3.0,78,0.00,,,0.00,687,Wunderground v.1.15,2013-03-13 20:27:00,
2013-03-13 15:28:00,27.5,21.2,30.43,West,278,3.0,3.0,77,0.00,,,0.00,687,Wunderground v.1.15,2013-03-13 20:28:00,
2013-03-13 15:30:00,27.6,21.6,30.42,WNW,289,3.0,3.0,78,0.00,,,0.00,684,Wunderground v.1.15,2013-03-13 20:30:00,
2013-03-13 15:33:00,27.7,21.7,30.42,WNW,288,3.0,3.0,78,0.00,,,0.00,677,Wunderground v.1.15,2013-03-13 20:33:00,
2013-03-13 15:34:00,27.7,21.7,30.42,WNW,288,1.0,3.0,78,0.00,,,0.00,673,Wunderground v.1.15,2013-03-13 20:34:00,
2013-03-13 15:35:00,27.7,21.7,30.42,WNW,288,1.0,3.0,78,0.00,,,0.00,673,Wunderground v.1.15,2013-03-13 20:35:00,
2013-03-13 15:37:00,27.7,22.0,30.42,WNW,288,2.0,3.0,79,0.00,,,0.00,670,Wunderground v.1.15,2013-03-13 20:37:00,
2013-03-13 15:38:00,27.8,22.1,30.42,WNW,288,0.0,3.0,79,0.00,,,0.00,664,Wunderground v.1.15,2013-03-13 20:38:00,
2013-03-13 15:40:00,27.8,21.5,30.42,WNW,288,2.0,2.0,77,0.00,,,0.00,661,Wunderground v.1.15,2013-03-13 20:40:00,
2013-03-13 15:42:00,27.9,21.9,30.42,WNW,288,0.0,2.0,78,0.00,,,0.00,657,Wunderground v.1.15,2013-03-13 20:42:00,
2013-03-13 15:45:00,28.0,22.3,30.42,WNW,288,4.0,4.0,79,0.00,,,0.00,652,Wunderground v.1.15,2013-03-13 20:45:00,
2013-03-13 15:48:00,28.1,22.1,30.42,WNW,288,3.0,4.0,78,0.00,,,0.00,643,Wunderground v.1.15,2013-03-13 20:48:00,
2013-03-13 15:49:00,28.1,22.4,30.42,WNW,288,3.0,4.0,79,0.00,,,0.00,643,Wunderground v.1.15,2013-03-13 20:49:00,
2013-03-13 15:50:00,28.2,22.5,30.42,WNW,288,4.0,4.0,79,0.00,,,0.00,638,Wunderground v.1.15,2013-03-13 20:50:00,
2013-03-13 15:53:00,28.1,22.1,30.42,WNW,288,2.0,4.0,78,0.00,,,0.00,635,Wunderground v.1.15,2013-03-13 20:53:00,
2013-03-13 15:55:00,28.2,22.2,30.42,WNW,294,3.0,4.0,78,0.00,,,0.00,628,Wunderground v.1.15,2013-03-13 20:55:00,
2013-03-13 15:56:00,28.2,22.2,30.42,WNW,294,3.0,4.0,78,0.00,,,0.00,628,Wunderground v.1.15,2013-03-13 20:56:00,
2013-03-13 15:58:00,28.2,22.2,30.41,WNW,294,4.0,4.0,78,0.00,,,0.00,621,Wunderground v.1.15,2013-03-13 20:58:00,
2013-03-13 15:59:00,28.2,22.2,30.42,WNW,294,2.0,4.0,78,0.00,,,0.00,619,Wunderground v.1.15,2013-03-13 20:59:00,
2013-03-13 16:00:00,28.2,22.2,30.42,WNW,294,2.0,2.0,78,0.00,,,0.00,613,Wunderground v.1.15,2013-03-13 21:00:00,
2013-03-13 16:01:00,28.3,22.3,30.42,WNW,294,1.0,3.0,78,0.00,,,0.00,612,Wunderground v.1.15,2013-03-13 21:01:00,
2013-03-13 16:04:00,28.3,22.3,30.41,WNW,294,2.0,3.0,78,0.00,,,0.00,605,Wunderground v.1.15,2013-03-13 21:04:00,
2013-03-13 16:05:00,28.4,22.4,30.41,WNW,294,2.0,3.0,78,0.00,,,0.00,599,Wunderground v.1.15,2013-03-13 21:05:00,
2013-03-13 16:09:00,28.4,22.1,30.41,WNW,299,2.0,4.0,77,0.00,,,0.00,591,Wunderground v.1.15,2013-03-13 21:09:00,
2013-03-13 16:11:00,28.3,22.0,30.41,WNW,299,0.0,2.0,77,0.00,,,0.00,587,Wunderground v.1.15,2013-03-13 21:11:00,
2013-03-13 16:15:00,28.5,22.2,30.41,WNW,296,2.0,3.0,77,0.00,,,0.00,573,Wunderground v.1.15,2013-03-13 21:15:00,
2013-03-13 16:17:00,28.6,22.6,30.41,WNW,296,2.0,3.0,78,0.00,,,0.00,570,Wunderground v.1.15,2013-03-13 21:17:00,
2013-03-13 16:20:00,28.6,22.0,30.41,WNW,296,0.0,2.0,76,0.00,,,0.00,563,Wunderground v.1.15,2013-03-13 21:20:00,
2013-03-13 16:22:00,28.6,22.3,30.40,WNW,296,0.0,2.0,77,0.00,,,0.00,555,Wunderground v.1.15,2013-03-13 21:22:00,
2013-03-13 16:23:00,28.6,22.3,30.40,WNW,296,0.0,2.0,77,0.00,,,0.00,555,Wunderground v.1.15,2013-03-13 21:23:00,
2013-03-13 16:27:00,28.7,22.7,30.40,WNW,302,1.0,2.0,78,0.00,,,0.00,543,Wunderground v.1.15,2013-03-13 21:27:00,
2013-03-13 16:28:00,28.8,23.1,30.40,WNW,302,1.0,2.0,79,0.00,,,0.00,540,Wunderground v.1.15,2013-03-13 21:28:00,
2013-03-13 16:29:00,28.8,22.8,30.40,WNW,302,0.0,2.0,78,0.00,,,0.00,536,Wunderground v.1.15,2013-03-13 21:29:00,
2013-03-13 16:33:00,28.8,22.5,30.40,WNW,302,0.0,1.0,77,0.00,,,0.00,524,Wunderground v.1.15,2013-03-13 21:33:00,
2013-03-13 16:34:00,28.8,22.5,30.40,WNW,302,0.0,1.0,77,0.00,,,0.00,520,Wunderground v.1.15,2013-03-13 21:34:00,
2013-03-13 16:35:00,28.8,22.5,30.40,WNW,302,1.0,1.0,77,0.00,,,0.00,519,Wunderground v.1.15,2013-03-13 21:35:00,
2013-03-13 16:38:00,28.9,22.6,30.40,WNW,302,0.0,1.0,77,0.00,,,0.00,508,Wunderground v.1.15,2013-03-13 21:38:00,
2013-03-13 16:39:00,28.9,22.6,30.40,WNW,302,0.0,1.0,77,0.00,,,0.00,508,Wunderground v.1.15,2013-03-13 21:39:00,
2013-03-13 16:40:00,29.0,23.0,30.40,WNW,302,1.0,1.0,78,0.00,,,0.00,503,Wunderground v.1.15,2013-03-13 21:40:00,
2013-03-13 16:41:00,29.0,23.0,30.40,WNW,302,1.0,2.0,78,0.00,,,0.00,499,Wunderground v.1.15,2013-03-13 21:41:00,
2013-03-13 16:44:00,29.0,22.7,30.40,WNW,302,0.0,2.0,77,0.00,,,0.00,489,Wunderground v.1.15,2013-03-13 21:44:00,
2013-03-13 16:45:00,28.9,22.6,30.40,WNW,302,0.0,2.0,77,0.00,,,0.00,489,Wunderground v.1.15,2013-03-13 21:45:00,
2013-03-13 16:46:00,28.9,22.6,30.40,WNW,302,0.0,2.0,77,0.00,,,0.00,485,Wunderground v.1.15,2013-03-13 21:46:00,
2013-03-13 16:50:00,29.0,22.7,30.40,WNW,302,0.0,2.0,77,0.00,,,0.00,471,Wunderground v.1.15,2013-03-13 21:50:00,
2013-03-13 16:51:00,28.9,22.6,30.40,WNW,302,0.0,1.0,77,0.00,,,0.00,466,Wunderground v.1.15,2013-03-13 21:51:00,
2013-03-13 16:52:00,28.9,22.6,30.40,WNW,302,0.0,1.0,77,0.00,,,0.00,462,Wunderground v.1.15,2013-03-13 21:52:00,
2013-03-13 16:55:00,29.1,22.8,30.40,WNW,302,0.0,1.0,77,0.00,,,0.00,450,Wunderground v.1.15,2013-03-13 21:55:00,
2013-03-13 16:58:00,29.2,22.9,30.40,WNW,302,0.0,1.0,77,0.00,,,0.00,441,Wunderground v.1.15,2013-03-13 21:58:00,
2013-03-13 16:59:00,29.6,23.3,30.39,WNW,302,0.0,1.0,77,0.00,,,0.00,438,Wunderground v.1.15,2013-03-13 21:59:00,
2013-03-13 17:00:00,29.6,23.0,30.39,WNW,302,0.0,0.0,76,0.00,,,0.00,432,Wunderground v.1.15,2013-03-13 22:00:00,
2013-03-13 17:04:00,29.0,22.7,30.39,WNW,302,0.0,0.0,77,0.00,,,0.00,422,Wunderground v.1.15,2013-03-13 22:04:00,
2013-03-13 17:05:00,29.2,23.2,30.39,WNW,302,0.0,0.0,78,0.00,,,0.00,418,Wunderground v.1.15,2013-03-13 22:05:00,
2013-03-13 17:06:00,29.3,23.3,30.39,WNW,302,0.0,0.0,78,0.00,,,0.00,417,Wunderground v.1.15,2013-03-13 22:06:00,
2013-03-13 17:10:00,28.8,22.8,30.39,WNW,302,0.0,0.0,78,0.00,,,0.00,401,Wunderground v.1.15,2013-03-13 22:10:00,
2013-03-13 17:12:00,28.7,22.7,30.39,WNW,302,0.0,0.0,78,0.00,,,0.00,396,Wunderground v.1.15,2013-03-13 22:12:00,
2013-03-13 17:13:00,28.6,22.6,30.39,WNW,302,0.0,0.0,78,0.00,,,0.00,392,Wunderground v.1.15,2013-03-13 22:13:00,
2013-03-13 17:16:00,29.0,23.3,30.39,WNW,302,0.0,0.0,79,0.00,,,0.00,381,Wunderground v.1.15,2013-03-13 22:16:00,
2013-03-13 17:18:00,28.8,22.8,30.39,WNW,302,0.0,0.0,78,0.00,,,0.00,373,Wunderground v.1.15,2013-03-13 22:18:00,
2013-03-13 17:19:00,28.8,22.8,30.39,WNW,302,0.0,0.0,78,0.00,,,0.00,371,Wunderground v.1.15,2013-03-13 22:19:00,
2013-03-13 17:20:00,29.1,23.4,30.39,WNW,302,0.0,0.0,79,0.00,,,0.00,367,Wunderground v.1.15,2013-03-13 22:20:00,
2013-03-13 17:23:00,29.4,23.4,30.40,WNW,302,0.0,0.0,78,0.00,,,0.00,357,Wunderground v.1.15,2013-03-13 22:23:00,
2013-03-13 17:24:00,29.4,23.4,30.40,WNW,302,0.0,1.0,78,0.00,,,0.00,353,Wunderground v.1.15,2013-03-13 22:24:00,
2013-03-13 17:29:00,29.2,23.2,30.40,WNW,302,0.0,1.0,78,0.00,,,0.00,338,Wunderground v.1.15,2013-03-13 22:29:00,
2013-03-13 17:30:00,29.2,23.2,30.40,WNW,302,0.0,1.0,78,0.00,,,0.00,334,Wunderground v.1.15,2013-03-13 22:30:00,
2013-03-13 17:31:00,29.3,23.6,30.40,WNW,302,0.0,0.0,79,0.00,,,0.00,332,Wunderground v.1.15,2013-03-13 22:31:00,
2013-03-13 17:35:00,29.4,23.7,30.40,WNW,302,0.0,0.0,79,0.00,,,0.00,316,Wunderground v.1.15,2013-03-13 22:35:00,
2013-03-13 17:36:00,29.4,23.7,30.40,WNW,302,0.0,0.0,79,0.00,,,0.00,316,Wunderground v.1.15,2013-03-13 22:36:00,
2013-03-13 17:37:00,29.5,23.5,30.39,WNW,302,0.0,0.0,78,0.00,,,0.00,311,Wunderground v.1.15,2013-03-13 22:37:00,
2013-03-13 17:41:00,30.2,24.2,30.39,WNW,302,0.0,0.0,78,0.00,,,0.00,299,Wunderground v.1.15,2013-03-13 22:41:00,
2013-03-13 17:42:00,30.3,23.6,30.39,WNW,302,0.0,0.0,76,0.00,,,0.00,295,Wunderground v.1.15,2013-03-13 22:42:00,
2013-03-13 17:45:00,29.5,22.9,30.38,WNW,302,0.0,0.0,76,0.00,,,0.00,283,Wunderground v.1.15,2013-03-13 22:45:00,
2013-03-13 17:47:00,29.3,23.0,30.38,WNW,302,0.0,0.0,77,0.00,,,0.00,278,Wunderground v.1.15,2013-03-13 22:47:00,
2013-03-13 17:52:00,29.3,23.0,30.38,WNW,302,0.0,0.0,77,0.00,,,0.00,253,Wunderground v.1.15,2013-03-13 22:52:00,
2013-03-13 17:53:00,29.3,23.0,30.38,WNW,302,0.0,0.0,77,0.00,,,0.00,251,Wunderground v.1.15,2013-03-13 22:53:00,
2013-03-13 17:54:00,29.3,23.0,30.38,WNW,302,0.0,0.0,77,0.00,,,0.00,244,Wunderground v.1.15,2013-03-13 22:54:00,
2013-03-13 17:57:00,29.4,22.8,30.38,WNW,302,0.0,0.0,76,0.00,,,0.00,232,Wunderground v.1.15,2013-03-13 22:57:00,
2013-03-13 17:59:00,29.4,22.8,30.38,WNW,302,0.0,0.0,76,0.00,,,0.00,229,Wunderground v.1.15,2013-03-13 22:59:00,
2013-03-13 18:00:00,29.4,22.8,30.38,WNW,302,0.0,0.0,76,0.00,,,0.00,225,Wunderground v.1.15,2013-03-13 23:00:00,
2013-03-13 18:02:00,29.5,22.9,30.37,WNW,302,2.0,3.0,76,0.00,,,0.00,214,Wunderground v.1.15,2013-03-13 23:02:00,
2013-03-13 18:04:00,29.6,22.6,30.37,WNW,302,1.0,3.0,75,0.00,,,0.00,209,Wunderground v.1.15,2013-03-13 23:04:00,
2013-03-13 18:06:00,29.6,22.6,30.37,WNW,302,2.0,3.0,75,0.00,,,0.00,202,Wunderground v.1.15,2013-03-13 23:06:00,
2013-03-13 18:08:00,29.7,22.4,30.37,WNW,302,1.0,3.0,74,0.00,,,0.00,190,Wunderground v.1.15,2013-03-13 23:08:00,
2013-03-13 18:09:00,29.8,22.5,30.37,WNW,302,1.0,3.0,74,0.00,,,0.00,186,Wunderground v.1.15,2013-03-13 23:09:00,
2013-03-13 18:11:00,29.7,22.4,30.37,WNW,298,2.0,4.0,74,0.00,,,0.00,179,Wunderground v.1.15,2013-03-13 23:11:00,
2013-03-13 18:13:00,29.7,22.4,30.37,WSW,245,1.0,4.0,74,0.00,,,0.00,167,Wunderground v.1.15,2013-03-13 23:13:00,
2013-03-13 18:15:00,29.7,22.7,30.37,South,171,2.0,4.0,75,0.00,,,0.00,162,Wunderground v.1.15,2013-03-13 23:15:00,
2013-03-13 18:16:00,29.7,22.4,30.37,SSE,163,2.0,4.0,74,0.00,,,0.00,155,Wunderground v.1.15,2013-03-13 23:16:00,
2013-03-13 18:18:00,29.7,23.1,30.37,SSE,161,2.0,4.0,76,0.00,,,0.00,148,Wunderground v.1.15,2013-03-13 23:18:00,
2013-03-13 18:21:00,29.6,23.0,30.37,SSE,161,1.0,2.0,76,0.00,,,0.00,135,Wunderground v.1.15,2013-03-13 23:21:00,
2013-03-13 18:22:00,29.5,22.9,30.36,SSE,161,3.0,3.0,76,0.00,,,0.00,132,Wunderground v.1.15,2013-03-13 23:22:00,
2013-03-13 18:24:00,29.4,23.1,30.36,SSE,152,4.0,4.0,77,0.00,,,0.00,130,Wunderground v.1.15,2013-03-13 23:24:00,
2013-03-13 18:27:00,29.4,22.8,30.36,SSE,151,2.0,4.0,76,0.00,,,0.00,116,Wunderground v.1.15,2013-03-13 23:27:00,
2013-03-13 18:29:00,29.4,22.8,30.36,SSE,157,2.0,4.0,76,0.00,,,0.00,109,Wunderground v.1.15,2013-03-13 23:29:00,
2013-03-13 18:32:00,29.0,23.0,30.35,SSE,157,1.0,2.0,78,0.00,,,0.00,98,Wunderground v.1.15,2013-03-13 23:32:00,
2013-03-13 18:35:00,28.9,22.9,30.35,SSE,158,2.0,2.0,78,0.00,,,0.00,90,Wunderground v.1.15,2013-03-13 23:35:00,
2013-03-13 18:37:00,28.8,23.1,30.36,South,182,3.0,4.0,79,0.00,,,0.00,81,Wunderground v.1.15,2013-03-13 23:37:00,
2013-03-13 18:38:00,28.7,23.0,30.36,South,189,3.0,4.0,79,0.00,,,0.00,79,Wunderground v.1.15,2013-03-13 23:38:00,
2013-03-13 18:40:00,28.6,23.2,30.36,SSW,193,3.0,3.0,80,0.00,,,0.00,72,Wunderground v.1.15,2013-03-13 23:40:00,
2013-03-13 18:43:00,28.4,22.7,30.36,SSW,193,1.0,3.0,79,0.00,,,0.00,62,Wunderground v.1.15,2013-03-13 23:43:00,
2013-03-13 18:44:00,28.3,22.9,30.36,SSW,193,0.0,3.0,80,0.00,,,0.00,54,Wunderground v.1.15,2013-03-13 23:44:00,
2013-03-13 18:47:00,28.0,22.9,30.36,SSW,193,0.0,3.0,81,0.00,,,0.00,53,Wunderground v.1.15,2013-03-13 23:47:00,
2013-03-13 18:48:00,27.8,22.7,30.36,SSW,193,0.0,3.0,81,0.00,,,0.00,46,Wunderground v.1.15,2013-03-13 23:48:00,
2013-03-13 18:51:00,27.6,23.1,30.36,SSW,193,1.0,1.0,83,0.00,,,0.00,42,Wunderground v.1.15,2013-03-13 23:51:00,
2013-03-13 18:52:00,27.7,22.9,30.36,SSW,193,0.0,1.0,82,0.00,,,0.00,40,Wunderground v.1.15,2013-03-13 23:52:00,
2013-03-13 18:54:00,27.9,23.1,30.36,SSW,193,0.0,1.0,82,0.00,,,0.00,35,Wunderground v.1.15,2013-03-13 23:54:00,
2013-03-13 18:57:00,27.8,23.0,30.36,SSW,193,0.0,1.0,82,0.00,,,0.00,30,Wunderground v.1.15,2013-03-13 23:57:00,
2013-03-13 18:58:00,27.9,23.1,30.36,SSW,193,0.0,1.0,82,0.00,,,0.00,28,Wunderground v.1.15,2013-03-13 23:58:00,
2013-03-13 19:00:00,27.9,23.1,30.36,SSW,193,0.0,1.0,82,0.00,,,0.00,26,Wunderground v.1.15,2013-03-14 00:00:00,
2013-03-13 19:05:00,28.0,22.9,30.36,SSW,193,0.0,0.0,81,0.00,,,0.00,19,Wunderground v.1.15,2013-03-14 00:05:00,
2013-03-13 19:10:00,28.0,22.9,30.36,SSW,193,0.0,0.0,81,0.00,,,0.00,12,Wunderground v.1.15,2013-03-14 00:10:00,
2013-03-13 19:11:00,28.0,22.9,30.36,SSW,193,0.0,0.0,81,0.00,,,0.00,12,Wunderground v.1.15,2013-03-14 00:11:00,
2013-03-13 19:12:00,28.0,22.9,30.36,SSW,193,0.0,0.0,81,0.00,,,0.00,11,Wunderground v.1.15,2013-03-14 00:12:00,
2013-03-13 19:13:00,28.0,22.9,30.36,SSW,193,0.0,0.0,81,0.00,,,0.00,11,Wunderground v.1.15,2013-03-14 00:13:00,
2013-03-13 19:15:00,28.0,22.9,30.36,SSW,193,0.0,0.0,81,0.00,,,0.00,9,Wunderground v.1.15,2013-03-14 00:15:00,
2013-03-13 19:17:00,27.9,22.8,30.36,SSW,193,0.0,0.0,81,0.00,,,0.00,7,Wunderground v.1.15,2013-03-14 00:17:00,
2013-03-13 19:18:00,27.9,22.8,30.36,SSW,193,0.0,0.0,81,0.00,,,0.00,7,Wunderground v.1.15,2013-03-14 00:18:00,
2013-03-13 19:19:00,27.8,22.7,30.36,SSW,193,0.0,0.0,81,0.00,,,0.00,7,Wunderground v.1.15,2013-03-14 00:19:00,
2013-03-13 19:21:00,27.7,22.6,30.36,SSW,193,0.0,0.0,81,0.00,,,0.00,5,Wunderground v.1.15,2013-03-14 00:21:00,
2013-03-13 19:23:00,27.6,22.5,30.36,SSW,193,0.0,0.0,81,0.00,,,0.00,0,Wunderground v.1.15,2013-03-14 00:23:00,
2013-03-13 19:25:00,27.4,22.3,30.36,SSW,193,0.0,0.0,81,0.00,,,0.00,0,Wunderground v.1.15,2013-03-14 00:25:00,
2013-03-13 19:26:00,27.3,22.5,30.36,SSW,193,0.0,0.0,82,0.00,,,0.00,0,Wunderground v.1.15,2013-03-14 00:26:00,
2013-03-13 19:28:00,27.2,22.4,30.36,SSW,193,0.0,0.0,82,0.00,,,0.00,0,Wunderground v.1.15,2013-03-14 00:28:00,
2013-03-13 19:32:00,26.6,21.6,30.36,SSW,193,0.0,0.0,81,0.00,,,0.00,0,Wunderground v.1.15,2013-03-14 00:32:00,
2013-03-13 19:33:00,26.5,21.5,30.36,SSW,193,0.0,0.0,81,0.00,,,0.00,0,Wunderground v.1.15,2013-03-14 00:33:00,
2013-03-13 19:34:00,26.5,21.2,30.36,SSW,193,0.0,0.0,80,0.00,,,0.00,0,Wunderground v.1.15,2013-03-14 00:34:00,
2013-03-13 19:38:00,26.6,21.3,30.35,SSW,193,2.0,2.0,80,0.00,,,0.00,0,Wunderground v.1.15,2013-03-14 00:38:00,
2013-03-13 19:39:00,26.7,21.4,30.35,SSW,193,1.0,2.0,80,0.00,,,0.00,0,Wunderground v.1.15,2013-03-14 00:39:00,
2013-03-13 19:40:00,27.0,21.7,30.35,SSW,193,1.0,2.0,80,0.00,,,0.00,0,Wunderground v.1.15,2013-03-14 00:40:00,
2013-03-13 19:44:00,27.3,21.3,30.35,SSW,193,0.0,2.0,78,0.00,,,0.00,0,Wunderground v.1.15,2013-03-14 00:44:00,
2013-03-13 19:46:00,26.9,21.0,30.35,SSW,193,0.0,2.0,78,0.00,,,0.00,0,Wunderground v.1.15,2013-03-14 00:46:00,
2013-03-13 19:47:00,26.8,20.9,30.35,SSW,193,0.0,2.0,78,0.00,,,0.00,0,Wunderground v.1.15,2013-03-14 00:47:00,
2013-03-13 19:49:00,26.5,20.9,30.35,SSW,193,0.0,2.0,79,0.00,,,0.00,0,Wunderground v.1.15,2013-03-14 00:49:00,
2013-03-13 19:50:00,26.4,20.8,30.35,SSW,193,0.0,2.0,79,0.00,,,0.00,0,Wunderground v.1.15,2013-03-14 00:50:00,
2013-03-13 19:53:00,26.3,21.3,30.35,SSW,193,0.0,0.0,81,0.00,,,0.00,0,Wunderground v.1.15,2013-03-14 00:53:00,
2013-03-13 19:55:00,26.3,21.3,30.35,SSW,193,0.0,0.0,81,0.00,,,0.00,0,Wunderground v.1.15,2013-03-14 00:55:00,
2013-03-13 19:57:00,26.2,21.5,30.35,SSW,193,0.0,0.0,82,0.00,,,0.00,0,Wunderground v.1.15,2013-03-14 00:57:00,
2013-03-13 19:59:00,26.0,21.3,30.35,SSW,193,0.0,0.0,82,0.00,,,0.00,0,Wunderground v.1.15,2013-03-14 00:59:00,
2013-03-13 20:00:00,26.0,21.3,30.35,SSW,193,0.0,0.0,82,0.00,,,0.00,0,Wunderground v.1.15,2013-03-14 01:00:00,
2013-03-13 20:02:00,26.0,21.0,30.35,SSW,193,0.0,0.0,81,0.00,,,0.00,0,Wunderground v.1.15,2013-03-14 01:02:00,
2013-03-13 20:05:00,26.0,21.0,30.35,SSW,193,0.0,0.0,81,0.00,,,0.00,0,Wunderground v.1.15,2013-03-14 01:05:00,
2013-03-13 20:06:00,26.1,21.1,30.35,SSW,193,0.0,0.0,81,0.00,,,0.00,0,Wunderground v.1.15,2013-03-14 01:06:00,
2013-03-13 20:08:00,26.3,21.3,30.35,SSW,193,0.0,0.0,81,0.00,,,0.00,0,Wunderground v.1.15,2013-03-14 01:08:00,
2013-03-13 20:13:00,26.6,21.3,30.34,SSW,193,0.0,0.0,80,0.00,,,0.00,0,Wunderground v.1.15,2013-03-14 01:13:00,
2013-03-13 20:14:00,26.6,21.3,30.34,SSW,193,0.0,0.0,80,0.00,,,0.00,0,Wunderground v.1.15,2013-03-14 01:14:00,
2013-03-13 20:19:00,26.6,21.3,30.34,SSW,193,0.0,0.0,80,0.00,,,0.00,0,Wunderground v.1.15,2013-03-14 01:19:00,
2013-03-13 20:20:00,26.5,21.2,30.34,SSW,193,0.0,0.0,80,0.00,,,0.00,0,Wunderground v.1.15,2013-03-14 01:20:00,
2013-03-13 20:23:00,26.4,21.1,30.34,SSW,193,0.0,0.0,80,0.00,,,0.00,0,Wunderground v.1.15,2013-03-14 01:23:00,
2013-03-13 20:25:00,26.4,21.1,30.34,SSW,193,0.0,0.0,80,0.00,,,0.00,0,Wunderground v.1.15,2013-03-14 01:25:00,
2013-03-13 20:28:00,26.5,20.9,30.34,SSW,193,0.0,0.0,79,0.00,,,0.00,0,Wunderground v.1.15,2013-03-14 01:28:00,
2013-03-13 20:30:00,26.1,20.5,30.34,SSW,193,0.0,0.0,79,0.00,,,0.00,0,Wunderground v.1.15,2013-03-14 01:30:00,
2013-03-13 20:32:00,26.0,20.7,30.35,SSW,193,0.0,0.0,80,0.00,,,0.00,0,Wunderground v.1.15,2013-03-14 01:32:00,
2013-03-13 20:34:00,26.0,21.0,30.35,SSW,193,0.0,0.0,81,0.00,,,0.00,0,Wunderground v.1.15,2013-03-14 01:34:00,
2013-03-13 20:35:00,26.1,21.1,30.35,SSW,193,0.0,0.0,81,0.00,,,0.00,0,Wunderground v.1.15,2013-03-14 01:35:00,
2013-03-13 20:36:00,26.3,21.3,30.35,SSW,193,0.0,0.0,81,0.00,,,0.00,0,Wunderground v.1.15,2013-03-14 01:36:00,
2013-03-13 20:37:00,26.5,21.5,30.35,SSW,193,0.0,0.0,81,0.00,,,0.00,0,Wunderground v.1.15,2013-03-14 01:37:00,
2013-03-13 20:40:00,26.7,21.4,30.35,SSW,193,0.0,0.0,80,0.00,,,0.00,0,Wunderground v.1.15,2013-03-14 01:40:00,
2013-03-13 20:41:00,26.7,21.4,30.35,SSW,193,0.0,0.0,80,0.00,,,0.00,0,Wunderground v.1.15,2013-03-14 01:41:00,
2013-03-13 20:44:00,27.0,21.4,30.35,SSW,193,0.0,0.0,79,0.00,,,0.00,0,Wunderground v.1.15,2013-03-14 01:44:00,
2013-03-13 20:47:00,26.6,20.7,30.35,SSW,193,0.0,0.0,78,0.00,,,0.00,0,Wunderground v.1.15,2013-03-14 01:47:00,
2013-03-13 20:48:00,26.3,20.7,30.35,SSW,193,0.0,0.0,79,0.00,,,0.00,0,Wunderground v.1.15,2013-03-14 01:48:00,
2013-03-13 20:51:00,25.4,20.4,30.35,SSW,193,0.0,0.0,81,0.00,,,0.00,0,Wunderground v.1.15,2013-03-14 01:51:00,
2013-03-13 20:53:00,25.4,20.4,30.35,SSW,193,0.0,0.0,81,0.00,,,0.00,0,Wunderground v.1.15,2013-03-14 01:53:00,
2013-03-13 20:54:00,25.5,20.5,30.35,SSW,193,0.0,0.0,81,0.00,,,0.00,0,Wunderground v.1.15,2013-03-14 01:54:00,
2013-03-13 20:56:00,25.5,20.5,30.35,SSW,193,0.0,0.0,81,0.00,,,0.00,0,Wunderground v.1.15,2013-03-14 01:56:00,
2013-03-13 20:58:00,25.4,20.7,30.35,SSW,193,0.0,0.0,82,0.00,,,0.00,0,Wunderground v.1.15,2013-03-14 01:58:00,
2013-03-13 20:59:00,25.4,20.7,30.35,SSW,193,0.0,0.0,82,0.00,,,0.00,0,Wunderground v.1.15,2013-03-14 01:59:00,
2013-03-13 21:00:00,25.4,20.7,30.35,SSW,193,0.0,0.0,82,0.00,,,0.00,0,Wunderground v.1.15,2013-03-14 02:00:00,
2013-03-13 21:01:00,25.4,20.7,30.35,SSW,193,0.0,0.0,82,0.00,,,0.00,0,Wunderground v.1.15,2013-03-14 02:01:00,
2013-03-13 21:03:00,25.4,20.7,30.35,SSW,193,0.0,0.0,82,0.00,,,0.00,0,Wunderground v.1.15,2013-03-14 02:03:00,
2013-03-13 21:04:00,25.4,20.7,30.35,SSW,193,0.0,0.0,82,0.00,,,0.00,0,Wunderground v.1.15,2013-03-14 02:04:00,
2013-03-13 21:05:00,25.4,21.0,30.35,SSW,193,0.0,0.0,83,0.00,,,0.00,0,Wunderground v.1.15,2013-03-14 02:05:00,
2013-03-13 21:07:00,25.5,21.1,30.35,SSW,193,0.0,0.0,83,0.00,,,0.00,0,Wunderground v.1.15,2013-03-14 02:07:00,
2013-03-13 21:09:00,25.6,21.2,30.35,SSW,193,0.0,0.0,83,0.00,,,0.00,0,Wunderground v.1.15,2013-03-14 02:09:00,
2013-03-13 21:10:00,25.5,21.1,30.35,SSW,193,0.0,0.0,83,0.00,,,0.00,0,Wunderground v.1.15,2013-03-14 02:10:00,
2013-03-13 21:11:00,25.3,20.9,30.35,SSW,193,0.0,0.0,83,0.00,,,0.00,0,Wunderground v.1.15,2013-03-14 02:11:00,
2013-03-13 21:13:00,25.1,20.7,30.34,SSW,193,0.0,0.0,83,0.00,,,0.00,0,Wunderground v.1.15,2013-03-14 02:13:00,
2013-03-13 21:14:00,25.0,20.6,30.34,SSW,193,0.0,0.0,83,0.00,,,0.00,0,Wunderground v.1.15,2013-03-14 02:14:00,
2013-03-13 21:16:00,24.7,20.3,30.34,SSW,193,0.0,0.0,83,0.00,,,0.00,0,Wunderground v.1.15,2013-03-14 02:16:00,
2013-03-13 21:17:00,24.7,20.3,30.34,SSW,193,0.0,0.0,83,0.00,,,0.00,0,Wunderground v.1.15,2013-03-14 02:17:00,
2013-03-13 21:18:00,24.6,20.5,30.34,SSW,193,2.0,2.0,84,0.00,,,0.00,0,Wunderground v.1.15,2013-03-14 02:18:00,
2013-03-13 21:19:00,24.6,20.5,30.34,South,188,1.0,2.0,84,0.00,,,0.00,0,Wunderground v.1.15,2013-03-14 02:19:00,
2013-03-13 21:22:00,24.6,20.5,30.34,South,181,1.0,1.0,84,0.00,,,0.00,0,Wunderground v.1.15,2013-03-14 02:22:00,
2013-03-13 21:23:00,24.6,20.5,30.34,South,176,1.0,1.0,84,0.00,,,0.00,0,Wunderground v.1.15,2013-03-14 02:23:00,
2013-03-13 21:24:00,24.7,20.8,30.34,SSE,168,0.0,2.0,85,0.00,,,0.00,0,Wunderground v.1.15,2013-03-14 02:24:00,
2013-03-13 21:25:00,24.7,20.8,30.34,SSE,167,1.0,2.0,85,0.00,,,0.00,0,Wunderground v.1.15,2013-03-14 02:25:00,
2013-03-13 21:27:00,24.7,20.6,30.34,SSE,167,1.0,2.0,84,0.00,,,0.00,0,Wunderground v.1.15,2013-03-14 02:27:00,
2013-03-13 21:30:00,24.8,20.9,30.34,SSE,160,1.0,1.0,85,0.00,,,0.00,0,Wunderground v.1.15,2013-03-14 02:30:00,
2013-03-13 21:31:00,24.8,20.7,30.34,SSE,158,2.0,3.0,84,0.00,,,0.00,0,Wunderground v.1.15,2013-03-14 02:31:00,
2013-03-13 21:33:00,24.7,20.6,30.34,SSE,158,1.0,3.0,84,0.00,,,0.00,0,Wunderground v.1.15,2013-03-14 02:33:00,
2013-03-13 21:35:00,24.7,20.8,30.34,SE,131,3.0,3.0,85,0.00,,,0.00,0,Wunderground v.1.15,2013-03-14 02:35:00,
2013-03-13 21:38:00,24.8,20.9,30.34,ESE,116,2.0,3.0,85,0.00,,,0.00,0,Wunderground v.1.15,2013-03-14 02:38:00,
2013-03-13 21:41:00,24.9,21.0,30.34,ESE,108,2.0,2.0,85,0.00,,,0.00,0,Wunderground v.1.15,2013-03-14 02:41:00,
2013-03-13 21:43:00,25.2,21.3,30.34,ESE,108,2.0,2.0,85,0.00,,,0.00,0,Wunderground v.1.15,2013-03-14 02:43:00,
2013-03-13 21:44:00,25.4,21.5,30.34,ESE,108,0.0,2.0,85,0.00,,,0.00,0,Wunderground v.1.15,2013-03-14 02:44:00,
2013-03-13 21:47:00,26.1,21.9,30.34,ESE,108,0.0,2.0,84,0.00,,,0.00,0,Wunderground v.1.15,2013-03-14 02:47:00,
2013-03-13 21:49:00,26.3,21.8,30.34,ESE,108,3.0,3.0,83,0.00,,,0.00,0,Wunderground v.1.15,2013-03-14 02:49:00,
2013-03-13 21:50:00,26.4,21.9,30.34,ESE,109,2.0,2.0,83,0.00,,,0.00,0,Wunderground v.1.15,2013-03-14 02:50:00,
2013-03-13 21:53:00,26.7,21.9,30.34,ESE,110,2.0,3.0,82,0.00,,,0.00,0,Wunderground v.1.15,2013-03-14 02:53:00,
2013-03-13 21:55:00,26.7,21.9,30.34,ESE,110,3.0,3.0,82,0.00,,,0.00,0,Wunderground v.1.15,2013-03-14 02:55:00,
2013-03-13 21:56:00,26.8,22.0,30.34,ESE,110,1.0,3.0,82,0.00,,,0.00,0,Wunderground v.1.15,2013-03-14 02:56:00,
2013-03-13 21:59:00,26.8,21.8,30.34,ESE,110,1.0,3.0,81,0.00,,,0.00,0,Wunderground v.1.15,2013-03-14 02:59:00,
2013-03-13 22:00:00,26.9,22.1,30.34,ESE,110,1.0,2.0,82,0.00,,,0.00,0,Wunderground v.1.15,2013-03-14 03:00:00,
2013-03-13 22:01:00,26.9,22.1,30.34,ESE,113,4.0,4.0,82,0.00,,,0.00,0,Wunderground v.1.15,2013-03-14 03:01:00,
2013-03-13 22:06:00,27.3,22.2,30.34,ESE,114,2.0,4.0,81,0.00,,,0.00,0,Wunderground v.1.15,2013-03-14 03:06:00,
2013-03-13 22:07:00,27.3,22.2,30.34,ESE,112,3.0,4.0,81,0.00,,,0.00,0,Wunderground v.1.15,2013-03-14 03:07:00,
2013-03-13 22:09:00,27.3,22.2,30.34,ESE,112,2.0,4.0,81,0.00,,,0.00,0,Wunderground v.1.15,2013-03-14 03:09:00,
2013-03-13 22:12:00,27.3,22.2,30.33,ESE,112,2.0,3.0,81,0.00,,,0.00,0,Wunderground v.1.15,2013-03-14 03:12:00,
2013-03-13 22:17:00,27.4,22.3,30.33,ESE,122,4.0,5.0,81,0.00,,,0.00,0,Wunderground v.1.15,2013-03-14 03:17:00,
2013-03-13 22:22:00,27.4,22.3,30.33,ESE,118,2.0,3.0,81,0.00,,,0.00,0,Wunderground v.1.15,2013-03-14 03:22:00,
2013-03-13 22:24:00,27.4,22.3,30.33,ESE,118,4.0,4.0,81,0.00,,,0.00,0,Wunderground v.1.15,2013-03-14 03:24:00,
2013-03-13 22:25:00,27.4,22.3,30.33,ESE,115,4.0,4.0,81,0.00,,,0.00,0,Wunderground v.1.15,2013-03-14 03:25:00,
2013-03-13 22:27:00,27.5,22.4,30.32,ESE,113,4.0,5.0,81,0.00,,,0.00,0,Wunderground v.1.15,2013-03-14 03:27:00,
2013-03-13 22:29:00,27.6,22.5,30.32,ESE,114,5.0,5.0,81,0.00,,,0.00,0,Wunderground v.1.15,2013-03-14 03:29:00,
2013-03-13 22:30:00,27.6,22.5,30.32,ESE,113,5.0,5.0,81,0.00,,,0.00,0,Wunderground v.1.15,2013-03-14 03:30:00,
2013-03-13 22:32:00,27.7,22.6,30.32,ESE,115,4.0,7.0,81,0.00,,,0.00,0,Wunderground v.1.15,2013-03-14 03:32:00,
2013-03-13 22:34:00,27.8,22.7,30.32,ESE,113,5.0,7.0,81,0.00,,,0.00,0,Wunderground v.1.15,2013-03-14 03:34:00,
2013-03-13 22:38:00,27.9,22.5,30.32,SE,124,5.0,7.0,80,0.00,,,0.00,0,Wunderground v.1.15,2013-03-14 03:38:00,
2013-03-13 22:39:00,27.9,22.5,30.32,SE,126,6.0,8.0,80,0.00,,,0.00,0,Wunderground v.1.15,2013-03-14 03:39:00,
2013-03-13 22:40:00,27.9,22.5,30.31,ESE,122,9.0,9.0,80,0.00,,,0.00,0,Wunderground v.1.15,2013-03-14 03:40:00,
2013-03-13 22:42:00,28.0,22.3,30.32,ESE,121,5.0,9.0,79,0.00,,,0.00,0,Wunderground v.1.15,2013-03-14 03:42:00,
2013-03-13 22:43:00,28.1,22.4,30.32,ESE,122,7.0,9.0,79,0.00,,,0.00,0,Wunderground v.1.15,2013-03-14 03:43:00,
2013-03-13 22:44:00,28.1,22.4,30.32,ESE,116,5.0,9.0,79,0.00,,,0.00,0,Wunderground v.1.15,2013-03-14 03:44:00,
2013-03-13 22:46:00,28.3,22.6,30.32,ESE,122,8.0,9.0,79,0.00,,,0.00,0,Wunderground v.1.15,2013-03-14 03:46:00,
2013-03-13 22:47:00,28.3,22.6,30.32,ESE,120,4.0,9.0,79,0.00,,,0.00,0,Wunderground v.1.15,2013-03-14 03:47:00,
2013-03-13 22:51:00,28.3,22.3,30.32,ESE,115,2.0,6.0,78,0.00,,,0.00,0,Wunderground v.1.15,2013-03-14 03:51:00,
2013-03-13 22:52:00,28.3,22.3,30.32,ESE,117,5.0,6.0,78,0.00,,,0.00,0,Wunderground v.1.15,2013-03-14 03:52:00,
2013-03-13 22:54:00,28.3,22.3,30.32,ESE,117,5.0,6.0,78,0.00,,,0.00,0,Wunderground v.1.15,2013-03-14 03:54:00,
2013-03-13 22:57:00,28.3,22.3,30.33,SE,131,6.0,6.0,78,0.00,,,0.00,0,Wunderground v.1.15,2013-03-14 03:57:00,
2013-03-13 22:59:00,28.3,22.3,30.32,ESE,118,4.0,7.0,78,0.00,,,0.00,0,Wunderground v.1.15,2013-03-14 03:59:00,
2013-03-13 23:00:00,28.3,22.3,30.32,ESE,119,4.0,4.0,78,0.00,,,0.00,0,Wunderground v.1.15,2013-03-14 04:00:00,
2013-03-13 23:03:00,28.2,22.2,30.32,ESE,121,7.0,7.0,78,0.00,,,0.00,0,Wunderground v.1.15,2013-03-14 04:03:00,
2013-03-13 23:05:00,28.2,22.2,30.32,ESE,119,4.0,7.0,78,0.00,,,0.00,0,Wunderground v.1.15,2013-03-14 04:05:00,
2013-03-13 23:07:00,28.1,22.1,30.32,SE,130,7.0,7.0,78,0.00,,,0.00,0,Wunderground v.1.15,2013-03-14 04:07:00,
2013-03-13 23:08:00,28.1,22.1,30.32,ESE,118,7.0,7.0,78,0.00,,,0.00,0,Wunderground v.1.15,2013-03-14 04:08:00,
2013-03-13 23:11:00,28.0,22.0,30.32,SE,128,7.0,8.0,78,0.00,,,0.00,0,Wunderground v.1.15,2013-03-14 04:11:00,
2013-03-13 23:14:00,28.0,22.0,30.32,SE,129,5.0,8.0,78,0.00,,,0.00,0,Wunderground v.1.15,2013-03-14 04:14:00,
2013-03-13 23:16:00,28.1,22.1,30.32,ESE,123,5.0,8.0,78,0.00,,,0.00,0,Wunderground v.1.15,2013-03-14 04:16:00,
2013-03-13 23:19:00,28.1,22.1,30.32,SE,126,2.0,8.0,78,0.00,,,0.00,0,Wunderground v.1.15,2013-03-14 04:19:00,
2013-03-13 23:22:00,28.1,22.1,30.32,SE,126,2.0,5.0,78,0.00,,,0.00,0,Wunderground v.1.15,2013-03-14 04:22:00,
2013-03-13 23:23:00,28.1,22.1,30.32,SE,126,2.0,5.0,78,0.00,,,0.00,0,Wunderground v.1.15,2013-03-14 04:23:00,
2013-03-13 23:24:00,28.0,21.7,30.32,SE,126,2.0,5.0,77,0.00,,,0.00,0,Wunderground v.1.15,2013-03-14 04:24:00,
2013-03-13 23:28:00,27.8,21.8,30.32,SE,128,3.0,5.0,78,0.00,,,0.00,0,Wunderground v.1.15,2013-03-14 04:28:00,
2013-03-13 23:29:00,27.7,21.7,30.32,SE,128,3.0,5.0,78,0.00,,,0.00,0,Wunderground v.1.15,2013-03-14 04:29:00,
2013-03-13 23:30:00,27.7,21.7,30.32,SE,128,3.0,5.0,78,0.00,,,0.00,0,Wunderground v.1.15,2013-03-14 04:30:00,
2013-03-13 23:31:00,27.6,21.9,30.32,SE,128,2.0,3.0,79,0.00,,,0.00,0,Wunderground v.1.15,2013-03-14 04:31:00,
2013-03-13 23:33:00,27.5,21.8,30.32,SE,128,2.0,3.0,79,0.00,,,0.00,0,Wunderground v.1.15,2013-03-14 04:33:00,
2013-03-13 23:35:00,27.3,21.6,30.32,SE,128,3.0,3.0,79,0.00,,,0.00,0,Wunderground v.1.15,2013-03-14 04:35:00,
2013-03-13 23:37:00,27.3,21.9,30.32,SE,129,2.0,3.0,80,0.00,,,0.00,0,Wunderground v.1.15,2013-03-14 04:37:00,
2013-03-13 23:38:00,27.3,21.9,30.31,SE,129,2.0,3.0,80,0.00,,,0.00,0,Wunderground v.1.15,2013-03-14 04:38:00,
2013-03-13 23:41:00,27.4,21.7,30.31,SE,129,3.0,4.0,79,0.00,,,0.00,0,Wunderground v.1.15,2013-03-14 04:41:00,
2013-03-13 23:43:00,27.6,21.9,30.31,SE,128,4.0,5.0,79,0.00,,,0.00,0,Wunderground v.1.15,2013-03-14 04:43:00,
2013-03-13 23:44:00,27.6,21.9,30.31,SE,128,3.0,5.0,79,0.00,,,0.00,0,Wunderground v.1.15,2013-03-14 04:44:00,
2013-03-13 23:47:00,27.6,21.6,30.31,SE,128,2.0,5.0,78,0.00,,,0.00,0,Wunderground v.1.15,2013-03-14 04:47:00,
2013-03-13 23:48:00,27.7,21.7,30.31,SE,134,2.0,5.0,78,0.00,,,0.00,0,Wunderground v.1.15,2013-03-14 04:48:00,
2013-03-13 23:50:00,27.7,21.7,30.31,SE,134,2.0,5.0,78,0.00,,,0.00,0,Wunderground v.1.15,2013-03-14 04:50:00,
2013-03-13 23:52:00,27.6,21.6,30.31,SE,134,2.0,3.0,78,0.00,,,0.00,0,Wunderground v.1.15,2013-03-14 04:52:00,
2013-03-13 23:53:00,27.6,21.6,30.31,SE,134,1.0,3.0,78,0.00,,,0.00,0,Wunderground v.1.15,2013-03-14 04:53:00,
2013-03-13 23:55:00,27.4,21.7,30.31,SE,134,1.0,3.0,79,0.00,,,0.00,0,Wunderground v.1.15,2013-03-14 04:55:00,
2013-03-13 23:58:00,27.0,21.7,30.31,SE,134,1.0,3.0,80,0.00,,,0.00,0,Wunderground v.1.15,2013-03-14 04:58:00,
2013-03-13 23:59:00,26.8,21.5,30.30,SE,134,3.0,3.0,80,0.00,,,0.00,0,Wunderground v.1.15,2013-03-14 04:59:00,